Wetterdaten: Sonntag, 01.01.2023
Datum Zeit Temp. Aussen Temp. o. S. Temp +5cm Feuchte Auss Luftdruck Regen Sonnenschein Regendauer Solar Windben Empfang
01.01.2023 00:00 16,7 C 15,6 C 11,1 C 62 % 1010,6 hPa 0,0 l/m 0 min 0 min 0 W/m 38,6 km/h (5 Bft) 97,87 %
01.01.2023 00:02 16,7 C 15,6 C 11,1 C 62 % 1010,6 hPa 0,0 l/m 0 min 0 min 0 W/m 25,7 km/h (4 Bft) 97,37 %
01.01.2023 00:04 16,7 C 15,6 C 11,1 C 62 % 1010,5 hPa 0,0 l/m 0 min 0 min 0 W/m 35,4 km/h (5 Bft) 95,74 %
01.01.2023 00:08 16,7 C 15,6 C 11,1 C 63 % 1010,5 hPa 0,0 l/m 0 min 0 min 0 W/m 35,4 km/h (5 Bft) 97,96 %
01.01.2023 00:10 16,7 C 15,6 C 11,7 C 62 % 1010,5 hPa 0,0 l/m 0 min 0 min 0 W/m 45,1 km/h (6 Bft) 97,87 %
01.01.2023 00:12 16,7 C 15,6 C 11,7 C 62 % 1010,5 hPa 0,0 l/m 0 min 0 min 0 W/m 41,8 km/h (6 Bft) 97,92 %
01.01.2023 00:14 16,7 C 15,6 C 11,7 C 62 % 1010,6 hPa 0,0 l/m 0 min 0 min 0 W/m 38,6 km/h (5 Bft) 97,87 %
01.01.2023 00:16 16,7 C 15,6 C 11,7 C 62 % 1010,6 hPa 0,0 l/m 0 min 0 min 0 W/m 25,7 km/h (4 Bft) 97,87 %
01.01.2023 00:18 16,7 C 15,6 C 11,1 C 63 % 1010,5 hPa 0,0 l/m 0 min 0 min 0 W/m 25,7 km/h (4 Bft) 97,87 %
01.01.2023 00:20 16,7 C 15,6 C 11,7 C 62 % 1010,4 hPa 0,0 l/m 0 min 0 min 0 W/m 41,8 km/h (6 Bft) 95,65 %
01.01.2023 00:22 16,7 C 15,6 C 11,7 C 62 % 1010,4 hPa 0,0 l/m 0 min 0 min 0 W/m 38,6 km/h (5 Bft) 95,74 %
01.01.2023 00:24 16,7 C 16,1 C 11,7 C 62 % 1010,6 hPa 0,0 l/m 0 min 0 min 0 W/m 32,2 km/h (5 Bft) 93,62 %
01.01.2023 00:26 16,8 C 15,6 C 11,7 C 62 % 1010,6 hPa 0,0 l/m 0 min 0 min 0 W/m 29,0 km/h (5 Bft) 95,74 %
01.01.2023 00:28 16,8 C 15,6 C 11,7 C 62 % 1010,6 hPa 0,0 l/m 0 min 0 min 0 W/m 29,0 km/h (5 Bft) 95,74 %
01.01.2023 00:30 16,7 C 15,6 C 11,1 C 62 % 1010,6 hPa 0,0 l/m 0 min 0 min 0 W/m 25,7 km/h (4 Bft) 95,74 %
01.01.2023 00:32 16,7 C 15,6 C 11,1 C 62 % 1010,5 hPa 0,0 l/m 0 min 0 min 0 W/m 35,4 km/h (5 Bft) 93,62 %
01.01.2023 00:34 16,7 C 15,6 C 11,1 C 62 % 1010,6 hPa 0,0 l/m 0 min 0 min 0 W/m 19,3 km/h (3 Bft) 95,65 %
01.01.2023 00:36 16,7 C 15,6 C 11,1 C 62 % 1010,7 hPa 0,0 l/m 0 min 0 min 0 W/m 29,0 km/h (5 Bft) 95,74 %
01.01.2023 00:38 16,7 C 15,6 C 11,1 C 62 % 1010,6 hPa 0,0 l/m 0 min 0 min 0 W/m 32,2 km/h (5 Bft) 95,74 %
01.01.2023 00:40 16,7 C 15,6 C 11,1 C 62 % 1010,7 hPa 0,0 l/m 0 min 0 min 0 W/m 48,3 km/h (6 Bft) 93,62 %
01.01.2023 00:42 16,8 C 15,6 C 11,7 C 62 % 1010,7 hPa 0,0 l/m 0 min 0 min 0 W/m 29,0 km/h (5 Bft) 93,62 %
01.01.2023 00:44 16,8 C 15,6 C 11,7 C 62 % 1010,8 hPa 0,0 l/m 0 min 0 min 0 W/m 25,7 km/h (4 Bft) 95,74 %
01.01.2023 00:46 16,8 C 15,6 C 11,7 C 62 % 1010,9 hPa 0,0 l/m 0 min 0 min 0 W/m 32,2 km/h (5 Bft) 93,62 %
01.01.2023 00:48 16,8 C 15,6 C 11,1 C 62 % 1010,9 hPa 0,0 l/m 0 min 0 min 0 W/m 25,7 km/h (4 Bft) 95,74 %
01.01.2023 00:50 16,7 C 15,6 C 11,1 C 62 % 1010,8 hPa 0,0 l/m 0 min 0 min 0 W/m 19,3 km/h (3 Bft) 95,65 %
01.01.2023 00:52 16,8 C 15,6 C 11,1 C 61 % 1010,9 hPa 0,0 l/m 0 min 0 min 0 W/m 35,4 km/h (5 Bft) 97,87 %
01.01.2023 00:54 16,8 C 16,1 C 11,7 C 61 % 1010,8 hPa 0,0 l/m 0 min 0 min 0 W/m 38,6 km/h (5 Bft) 97,87 %
01.01.2023 00:56 16,8 C 15,6 C 11,7 C 61 % 1010,8 hPa 0,0 l/m 0 min 0 min 0 W/m 29,0 km/h (5 Bft) 100,00 %
01.01.2023 00:58 16,8 C 16,1 C 11,7 C 61 % 1010,9 hPa 0,0 l/m 0 min 0 min 0 W/m 41,8 km/h (6 Bft) 100,00 %
01.01.2023 01:00 16,8 C 15,6 C 11,1 C 61 % 1010,8 hPa 0,0 l/m 0 min 0 min 0 W/m 32,2 km/h (5 Bft) 100,00 %
01.01.2023 01:02 16,8 C 15,6 C 11,7 C 61 % 1010,9 hPa 0,0 l/m 0 min 0 min 0 W/m 29,0 km/h (5 Bft) 100,00 %
01.01.2023 01:04 16,8 C 15,6 C 11,7 C 61 % 1010,9 hPa 0,0 l/m 0 min 0 min 0 W/m 32,2 km/h (5 Bft) 100,00 %
01.01.2023 01:06 16,8 C 16,1 C 11,7 C 60 % 1010,9 hPa 0,0 l/m 0 min 0 min 0 W/m 29,0 km/h (5 Bft) 100,00 %
01.01.2023 01:08 16,8 C 16,1 C 11,7 C 61 % 1010,8 hPa 0,0 l/m 0 min 0 min 0 W/m 38,6 km/h (5 Bft) 100,00 %
01.01.2023 01:10 16,8 C 16,1 C 11,7 C 60 % 1010,7 hPa 0,0 l/m 0 min 0 min 0 W/m 35,4 km/h (5 Bft) 100,00 %
01.01.2023 01:12 16,8 C 15,6 C 11,7 C 60 % 1010,8 hPa 0,0 l/m 0 min 0 min 0 W/m 22,5 km/h (4 Bft) 100,00 %
01.01.2023 01:14 16,8 C 15,6 C 11,7 C 60 % 1010,7 hPa 0,0 l/m 0 min 0 min 0 W/m 22,5 km/h (4 Bft) 100,00 %
01.01.2023 01:16 16,8 C 15,6 C 11,1 C 61 % 1010,7 hPa 0,0 l/m 0 min 0 min 0 W/m 22,5 km/h (4 Bft) 100,00 %
01.01.2023 01:18 16,8 C 15,6 C 11,1 C 60 % 1010,7 hPa 0,0 l/m 0 min 0 min 0 W/m 35,4 km/h (5 Bft) 100,00 %
01.01.2023 01:20 16,7 C 15,6 C 11,1 C 60 % 1010,8 hPa 0,0 l/m 0 min 0 min 0 W/m 29,0 km/h (5 Bft) 97,87 %
01.01.2023 01:22 16,8 C 15,6 C 11,7 C 60 % 1010,7 hPa 0,0 l/m 0 min 0 min 0 W/m 25,7 km/h (4 Bft) 100,00 %
01.01.2023 01:24 16,7 C 15,6 C 11,1 C 60 % 1010,8 hPa 0,0 l/m 0 min 0 min 0 W/m 25,7 km/h (4 Bft) 100,00 %
01.01.2023 01:26 16,7 C 15,6 C 11,7 C 60 % 1010,8 hPa 0,0 l/m 0 min 0 min 0 W/m 29,0 km/h (5 Bft) 100,00 %
01.01.2023 01:28 16,7 C 15,6 C 11,1 C 60 % 1010,8 hPa 0,0 l/m 0 min 0 min 0 W/m 32,2 km/h (5 Bft) 100,00 %
01.01.2023 01:30 16,7 C 15,6 C 11,7 C 60 % 1010,9 hPa 0,0 l/m 0 min 0 min 0 W/m 35,4 km/h (5 Bft) 100,00 %
01.01.2023 01:32 16,7 C 15,6 C 11,1 C 60 % 1011,0 hPa 0,0 l/m 0 min 0 min 0 W/m 22,5 km/h (4 Bft) 100,00 %
01.01.2023 01:34 16,7 C 15,6 C 11,1 C 60 % 1011,0 hPa 0,0 l/m 0 min 0 min 0 W/m 29,0 km/h (5 Bft) 98,28 %
01.01.2023 01:36 16,7 C 15,6 C 11,1 C 60 % 1011,0 hPa 0,0 l/m 0 min 0 min 0 W/m 32,2 km/h (5 Bft) 100,00 %
01.01.2023 01:38 16,7 C 15,6 C 11,7 C 59 % 1011,0 hPa 0,0 l/m 0 min 0 min 0 W/m 32,2 km/h (5 Bft) 100,00 %
01.01.2023 01:40 16,7 C 15,6 C 11,7 C 59 % 1010,9 hPa 0,0 l/m 0 min 0 min 0 W/m 29,0 km/h (5 Bft) 100,00 %
01.01.2023 01:42 16,7 C 15,6 C 11,1 C 59 % 1011,1 hPa 0,0 l/m 0 min 0 min 0 W/m 25,7 km/h (4 Bft) 100,00 %
01.01.2023 01:44 16,7 C 15,6 C 11,1 C 59 % 1011,0 hPa 0,0 l/m 0 min 0 min 0 W/m 25,7 km/h (4 Bft) 97,87 %
01.01.2023 01:46 16,7 C 15,6 C 11,1 C 59 % 1011,1 hPa 0,0 l/m 0 min 0 min 0 W/m 25,7 km/h (4 Bft) 100,00 %
01.01.2023 01:48 16,6 C 15,6 C 11,1 C 59 % 1011,0 hPa 0,0 l/m 0 min 0 min 0 W/m 25,7 km/h (4 Bft) 100,00 %
01.01.2023 01:50 16,6 C 15,6 C 11,1 C 59 % 1011,0 hPa 0,0 l/m 0 min 0 min 0 W/m 38,6 km/h (5 Bft) 97,83 %
01.01.2023 01:52 16,6 C 15,6 C 11,1 C 59 % 1011,0 hPa 0,0 l/m 0 min 0 min 0 W/m 19,3 km/h (3 Bft) 97,87 %
01.01.2023 01:54 16,6 C 15,6 C 11,1 C 59 % 1011,1 hPa 0,0 l/m 0 min 0 min 0 W/m 25,7 km/h (4 Bft) 97,87 %
01.01.2023 01:56 16,6 C 15,6 C 11,1 C 59 % 1011,0 hPa 0,0 l/m 0 min 0 min 0 W/m 41,8 km/h (6 Bft) 97,87 %
01.01.2023 01:58 16,6 C 15,6 C 11,1 C 59 % 1010,9 hPa 0,0 l/m 0 min 0 min 0 W/m 32,2 km/h (5 Bft) 95,74 %
01.01.2023 02:00 16,5 C 15,6 C 11,1 C 58 % 1010,9 hPa 0,0 l/m 0 min 0 min 0 W/m 35,4 km/h (5 Bft) 95,74 %
01.01.2023 02:02 16,5 C 15,6 C 11,1 C 58 % 1010,9 hPa 0,0 l/m 0 min 0 min 0 W/m 32,2 km/h (5 Bft) 97,87 %
01.01.2023 02:04 16,5 C 15,6 C 11,1 C 58 % 1010,9 hPa 0,0 l/m 0 min 0 min 0 W/m 57,9 km/h (7 Bft) 95,74 %
01.01.2023 02:06 16,5 C 15,6 C 11,1 C 58 % 1010,9 hPa 0,0 l/m 0 min 0 min 0 W/m 32,2 km/h (5 Bft) 98,31 %
01.01.2023 02:08 16,5 C 15,6 C 11,1 C 58 % 1010,9 hPa 0,0 l/m 0 min 0 min 0 W/m 32,2 km/h (5 Bft) 97,14 %
01.01.2023 02:10 16,4 C 15,6 C 11,1 C 57 % 1011,0 hPa 0,0 l/m 0 min 0 min 0 W/m 32,2 km/h (5 Bft) 96,30 %
01.01.2023 02:12 16,4 C 15,6 C 11,1 C 57 % 1011,0 hPa 0,0 l/m 0 min 0 min 0 W/m 41,8 km/h (6 Bft) 95,74 %
01.01.2023 02:14 16,4 C 15,6 C 11,1 C 57 % 1011,0 hPa 0,0 l/m 0 min 0 min 0 W/m 41,8 km/h (6 Bft) 97,87 %
01.01.2023 02:16 16,4 C 15,6 C 11,1 C 57 % 1011,0 hPa 0,0 l/m 0 min 0 min 0 W/m 25,7 km/h (4 Bft) 95,65 %
01.01.2023 02:18 16,4 C 15,6 C 11,1 C 57 % 1010,9 hPa 0,0 l/m 0 min 0 min 0 W/m 41,8 km/h (6 Bft) 95,74 %
01.01.2023 02:20 16,4 C 15,6 C 11,1 C 57 % 1011,0 hPa 0,0 l/m 0 min 0 min 0 W/m 29,0 km/h (5 Bft) 95,74 %
01.01.2023 02:22 16,3 C 15,6 C 11,1 C 57 % 1011,1 hPa 0,0 l/m 0 min 0 min 0 W/m 32,2 km/h (5 Bft) 93,62 %
01.01.2023 02:24 16,3 C 15,6 C 11,1 C 57 % 1011,0 hPa 0,0 l/m 0 min 0 min 0 W/m 45,1 km/h (6 Bft) 95,74 %
01.01.2023 02:26 16,3 C 15,6 C 11,1 C 57 % 1011,0 hPa 0,0 l/m 0 min 0 min 0 W/m 45,1 km/h (6 Bft) 95,74 %
01.01.2023 02:28 16,3 C 15,6 C 11,1 C 57 % 1011,0 hPa 0,0 l/m 0 min 0 min 0 W/m 29,0 km/h (5 Bft) 93,62 %
01.01.2023 02:30 16,3 C 15,6 C 11,1 C 57 % 1011,0 hPa 0,0 l/m 0 min 0 min 0 W/m 32,2 km/h (5 Bft) 93,48 %
01.01.2023 02:32 16,3 C 15,6 C 11,1 C 57 % 1011,1 hPa 0,0 l/m 0 min 0 min 0 W/m 38,6 km/h (5 Bft) 95,74 %
01.01.2023 02:34 16,3 C 15,6 C 11,1 C 57 % 1011,1 hPa 0,0 l/m 0 min 0 min 0 W/m 35,4 km/h (5 Bft) 95,74 %
01.01.2023 02:36 16,3 C 15,6 C 11,1 C 57 % 1011,2 hPa 0,0 l/m 0 min 0 min 0 W/m 29,0 km/h (5 Bft) 93,62 %
01.01.2023 02:38 16,3 C 15,6 C 11,1 C 57 % 1011,2 hPa 0,0 l/m 0 min 0 min 0 W/m 48,3 km/h (6 Bft) 97,87 %
01.01.2023 02:40 16,2 C 15,6 C 11,1 C 57 % 1011,2 hPa 0,0 l/m 0 min 0 min 0 W/m 25,7 km/h (4 Bft) 97,87 %
01.01.2023 02:42 16,2 C 15,0 C 11,1 C 57 % 1011,3 hPa 0,0 l/m 0 min 0 min 0 W/m 29,0 km/h (5 Bft) 97,87 %
01.01.2023 02:44 16,2 C 15,0 C 11,1 C 57 % 1011,2 hPa 0,0 l/m 0 min 0 min 0 W/m 35,4 km/h (5 Bft) 95,65 %
01.01.2023 02:46 16,2 C 15,0 C 11,1 C 57 % 1011,2 hPa 0,0 l/m 0 min 0 min 0 W/m 41,8 km/h (6 Bft) 95,74 %
01.01.2023 02:48 16,2 C 15,0 C 11,1 C 57 % 1011,4 hPa 0,0 l/m 0 min 0 min 0 W/m 29,0 km/h (5 Bft) 97,87 %
01.01.2023 02:50 16,2 C 15,0 C 11,1 C 58 % 1011,4 hPa 0,0 l/m 0 min 0 min 0 W/m 38,6 km/h (5 Bft) 93,62 %
01.01.2023 02:52 16,1 C 15,0 C 11,1 C 58 % 1011,5 hPa 0,0 l/m 0 min 0 min 0 W/m 29,0 km/h (5 Bft) 97,87 %
01.01.2023 02:54 16,1 C 15,0 C 11,1 C 58 % 1011,5 hPa 0,0 l/m 0 min 0 min 0 W/m 32,2 km/h (5 Bft) 95,74 %
01.01.2023 02:56 16,1 C 15,0 C 11,1 C 58 % 1011,5 hPa 0,0 l/m 0 min 0 min 0 W/m 54,7 km/h (7 Bft) 97,87 %
01.01.2023 02:58 16,1 C 15,0 C 11,1 C 58 % 1011,5 hPa 0,0 l/m 0 min 0 min 0 W/m 45,1 km/h (6 Bft) 97,83 %
01.01.2023 03:00 16,1 C 15,0 C 11,1 C 58 % 1011,4 hPa 0,0 l/m 0 min 0 min 0 W/m 22,5 km/h (4 Bft) 97,87 %
01.01.2023 03:02 16,0 C 15,0 C 11,1 C 58 % 1011,3 hPa 0,0 l/m 0 min 0 min 0 W/m 38,6 km/h (5 Bft) 97,87 %
01.01.2023 03:04 16,0 C 15,0 C 10,6 C 58 % 1011,4 hPa 0,0 l/m 0 min 0 min 0 W/m 25,7 km/h (4 Bft) 97,87 %
01.01.2023 03:06 15,9 C 15,0 C 10,6 C 58 % 1011,3 hPa 0,0 l/m 0 min 0 min 0 W/m 29,0 km/h (5 Bft) 97,87 %
01.01.2023 03:08 15,9 C 15,0 C 10,6 C 58 % 1011,3 hPa 0,0 l/m 0 min 0 min 0 W/m 29,0 km/h (5 Bft) 97,87 %
01.01.2023 03:10 15,9 C 15,0 C 10,6 C 58 % 1011,4 hPa 0,0 l/m 0 min 0 min 0 W/m 38,6 km/h (5 Bft) 97,87 %
01.01.2023 03:12 15,9 C 15,0 C 10,6 C 58 % 1011,4 hPa 0,0 l/m 0 min 0 min 0 W/m 41,8 km/h (6 Bft) 95,65 %
01.01.2023 03:14 15,9 C 15,0 C 10,6 C 58 % 1011,4 hPa 0,0 l/m 0 min 0 min 0 W/m 35,4 km/h (5 Bft) 97,87 %
01.01.2023 03:16 15,9 C 15,0 C 10,6 C 58 % 1011,4 hPa 0,0 l/m 0 min 0 min 0 W/m 41,8 km/h (6 Bft) 97,87 %
01.01.2023 03:18 15,9 C 15,0 C 10,6 C 58 % 1011,4 hPa 0,0 l/m 0 min 0 min 0 W/m 25,7 km/h (4 Bft) 97,87 %
01.01.2023 03:20 15,8 C 15,0 C 10,6 C 58 % 1011,4 hPa 0,0 l/m 0 min 0 min 0 W/m 32,2 km/h (5 Bft) 97,87 %
01.01.2023 03:22 15,8 C 15,0 C 10,6 C 58 % 1011,5 hPa 0,0 l/m 0 min 0 min 0 W/m 25,7 km/h (4 Bft) 97,87 %
01.01.2023 03:24 15,8 C 15,0 C 10,6 C 59 % 1011,4 hPa 0,0 l/m 0 min 0 min 0 W/m 35,4 km/h (5 Bft) 97,87 %
01.01.2023 03:26 15,8 C 15,0 C 10,6 C 59 % 1011,3 hPa 0,0 l/m 0 min 0 min 0 W/m 32,2 km/h (5 Bft) 97,83 %
01.01.2023 03:28 15,8 C 15,0 C 10,6 C 59 % 1011,2 hPa 0,0 l/m 0 min 0 min 0 W/m 41,8 km/h (6 Bft) 97,87 %
01.01.2023 03:30 15,8 C 15,0 C 10,6 C 59 % 1011,3 hPa 0,0 l/m 0 min 0 min 0 W/m 41,8 km/h (6 Bft) 91,49 %
01.01.2023 03:32 15,8 C 15,0 C 10,6 C 59 % 1011,5 hPa 0,0 l/m 0 min 0 min 0 W/m 29,0 km/h (5 Bft) 97,87 %
01.01.2023 03:34 15,8 C 15,0 C 10,6 C 59 % 1011,4 hPa 0,0 l/m 0 min 0 min 0 W/m 35,4 km/h (5 Bft) 97,87 %
01.01.2023 03:36 15,8 C 15,0 C 10,6 C 59 % 1011,3 hPa 0,0 l/m 0 min 0 min 0 W/m 29,0 km/h (5 Bft) 97,87 %
01.01.2023 03:38 15,8 C 15,0 C 10,6 C 59 % 1011,3 hPa 0,0 l/m 0 min 0 min 0 W/m 38,6 km/h (5 Bft) 100,00 %
01.01.2023 03:40 15,8 C 15,0 C 10,6 C 59 % 1011,3 hPa 0,0 l/m 0 min 0 min 0 W/m 35,4 km/h (5 Bft) 100,00 %
01.01.2023 03:42 15,8 C 15,0 C 10,6 C 59 % 1011,4 hPa 0,0 l/m 0 min 0 min 0 W/m 32,2 km/h (5 Bft) 100,00 %
01.01.2023 03:44 15,8 C 15,0 C 10,6 C 59 % 1011,4 hPa 0,0 l/m 0 min 0 min 0 W/m 32,2 km/h (5 Bft) 100,00 %
01.01.2023 03:46 15,8 C 15,0 C 10,6 C 59 % 1011,4 hPa 0,0 l/m 0 min 0 min 0 W/m 48,3 km/h (6 Bft) 100,00 %
01.01.2023 03:48 15,7 C 15,0 C 10,6 C 59 % 1011,3 hPa 0,0 l/m 0 min 0 min 0 W/m 41,8 km/h (6 Bft) 100,00 %
01.01.2023 03:50 15,7 C 15,0 C 10,6 C 60 % 1011,3 hPa 0,0 l/m 0 min 0 min 0 W/m 32,2 km/h (5 Bft) 100,00 %
01.01.2023 03:52 15,7 C 14,4 C 10,6 C 60 % 1011,4 hPa 0,0 l/m 0 min 0 min 0 W/m 29,0 km/h (5 Bft) 100,00 %
01.01.2023 03:54 15,7 C 14,4 C 10,6 C 60 % 1011,4 hPa 0,0 l/m 0 min 0 min 0 W/m 22,5 km/h (4 Bft) 100,00 %
01.01.2023 03:56 15,7 C 14,4 C 10,6 C 60 % 1011,3 hPa 0,0 l/m 0 min 0 min 0 W/m 22,5 km/h (4 Bft) 100,00 %
01.01.2023 03:58 15,6 C 14,4 C 10,6 C 60 % 1011,4 hPa 0,0 l/m 0 min 0 min 0 W/m 32,2 km/h (5 Bft) 100,00 %
01.01.2023 04:00 15,6 C 14,4 C 10,6 C 60 % 1011,4 hPa 0,0 l/m 0 min 0 min 0 W/m 32,2 km/h (5 Bft) 100,00 %
01.01.2023 04:02 15,6 C 14,4 C 10,6 C 60 % 1011,5 hPa 0,0 l/m 0 min 0 min 0 W/m 29,0 km/h (5 Bft) 100,00 %
01.01.2023 04:04 15,6 C 15,0 C 10,6 C 60 % 1011,5 hPa 0,0 l/m 0 min 0 min 0 W/m 38,6 km/h (5 Bft) 100,00 %
01.01.2023 04:06 15,6 C 14,4 C 10,6 C 60 % 1011,5 hPa 0,0 l/m 0 min 0 min 0 W/m 22,5 km/h (4 Bft) 100,00 %
01.01.2023 04:08 15,6 C 14,4 C 10,6 C 60 % 1011,6 hPa 0,0 l/m 0 min 0 min 0 W/m 32,2 km/h (5 Bft) 100,00 %
01.01.2023 04:10 15,6 C 14,4 C 10,6 C 60 % 1011,5 hPa 0,0 l/m 0 min 0 min 0 W/m 29,0 km/h (5 Bft) 100,00 %
01.01.2023 04:12 15,6 C 14,4 C 10,6 C 61 % 1011,5 hPa 0,0 l/m 0 min 0 min 0 W/m 25,7 km/h (4 Bft) 100,00 %
01.01.2023 04:14 15,6 C 14,4 C 10,6 C 61 % 1011,5 hPa 0,0 l/m 0 min 0 min 0 W/m 22,5 km/h (4 Bft) 100,00 %
01.01.2023 04:16 15,6 C 14,4 C 10,6 C 61 % 1011,5 hPa 0,0 l/m 0 min 0 min 0 W/m 25,7 km/h (4 Bft) 100,00 %
01.01.2023 04:18 15,6 C 14,4 C 10,6 C 61 % 1011,6 hPa 0,0 l/m 0 min 0 min 0 W/m 22,5 km/h (4 Bft) 97,87 %
01.01.2023 04:20 15,6 C 14,4 C 10,6 C 61 % 1011,6 hPa 0,0 l/m 0 min 0 min 0 W/m 22,5 km/h (4 Bft) 95,74 %
01.01.2023 04:22 15,5 C 14,4 C 10,6 C 61 % 1011,6 hPa 0,0 l/m 0 min 0 min 0 W/m 29,0 km/h (5 Bft) 95,65 %
01.01.2023 04:24 15,5 C 14,4 C 10,6 C 61 % 1011,6 hPa 0,0 l/m 0 min 0 min 0 W/m 22,5 km/h (4 Bft) 95,74 %
01.01.2023 04:26 15,5 C 14,4 C 10,6 C 61 % 1011,6 hPa 0,0 l/m 0 min 0 min 0 W/m 25,7 km/h (4 Bft) 97,87 %
01.01.2023 04:28 15,5 C 14,4 C 10,6 C 62 % 1011,7 hPa 0,0 l/m 0 min 0 min 0 W/m 22,5 km/h (4 Bft) 97,87 %
01.01.2023 04:30 15,5 C 14,4 C 10,6 C 62 % 1011,7 hPa 0,0 l/m 0 min 0 min 0 W/m 32,2 km/h (5 Bft) 97,87 %
01.01.2023 04:32 15,4 C 14,4 C 10,6 C 62 % 1011,8 hPa 0,0 l/m 0 min 0 min 0 W/m 19,3 km/h (3 Bft) 95,74 %
01.01.2023 04:34 15,4 C 14,4 C 10,6 C 62 % 1011,8 hPa 0,0 l/m 0 min 0 min 0 W/m 16,1 km/h (3 Bft) 97,87 %
01.01.2023 04:36 15,4 C 14,4 C 10,0 C 62 % 1011,8 hPa 0,0 l/m 0 min 0 min 0 W/m 19,3 km/h (3 Bft) 95,65 %
01.01.2023 04:38 15,4 C 14,4 C 10,0 C 62 % 1011,8 hPa 0,0 l/m 0 min 0 min 0 W/m 32,2 km/h (5 Bft) 91,49 %
01.01.2023 04:40 15,4 C 14,4 C 10,6 C 62 % 1011,8 hPa 0,0 l/m 0 min 0 min 0 W/m 32,2 km/h (5 Bft) 95,74 %
01.01.2023 04:42 15,4 C 14,4 C 10,6 C 62 % 1011,9 hPa 0,0 l/m 0 min 0 min 0 W/m 32,2 km/h (5 Bft) 95,74 %
01.01.2023 04:44 15,4 C 14,4 C 10,6 C 63 % 1011,9 hPa 0,0 l/m 0 min 0 min 0 W/m 38,6 km/h (5 Bft) 95,74 %
01.01.2023 04:46 15,4 C 14,4 C 10,6 C 62 % 1011,8 hPa 0,0 l/m 0 min 0 min 0 W/m 41,8 km/h (6 Bft) 95,74 %
01.01.2023 04:48 15,5 C 14,4 C 10,6 C 62 % 1011,6 hPa 0,0 l/m 0 min 0 min 0 W/m 38,6 km/h (5 Bft) 93,62 %
01.01.2023 04:50 15,5 C 14,4 C 10,6 C 62 % 1011,9 hPa 0,0 l/m 0 min 0 min 0 W/m 35,4 km/h (5 Bft) 97,83 %
01.01.2023 04:52 15,6 C 14,4 C 10,6 C 62 % 1011,9 hPa 0,0 l/m 0 min 2 min 0 W/m 38,6 km/h (5 Bft) 95,74 %
01.01.2023 04:54 15,6 C 14,4 C 10,6 C 63 % 1011,9 hPa 0,0 l/m 0 min 0 min 0 W/m 25,7 km/h (4 Bft) 97,87 %
01.01.2023 04:56 15,5 C 14,4 C 10,6 C 63 % 1012,0 hPa 0,0 l/m 0 min 0 min 0 W/m 35,4 km/h (5 Bft) 97,87 %
01.01.2023 04:58 15,6 C 14,4 C 10,6 C 63 % 1012,0 hPa 0,0 l/m 0 min 2 min 0 W/m 45,1 km/h (6 Bft) 97,87 %
01.01.2023 05:00 15,6 C 14,4 C 10,6 C 63 % 1012,0 hPa 0,0 l/m 0 min 0 min 0 W/m 41,8 km/h (6 Bft) 95,74 %
01.01.2023 05:02 15,5 C 14,4 C 10,6 C 63 % 1011,9 hPa 0,0 l/m 0 min 0 min 0 W/m 35,4 km/h (5 Bft) 100,00 %
01.01.2023 05:04 15,5 C 14,4 C 10,6 C 63 % 1012,0 hPa 0,0 l/m 0 min 0 min 0 W/m 32,2 km/h (5 Bft) 95,65 %
01.01.2023 05:06 15,5 C 14,4 C 10,0 C 63 % 1012,0 hPa 0,0 l/m 0 min 0 min 0 W/m 29,0 km/h (5 Bft) 95,74 %
01.01.2023 05:08 15,5 C 14,4 C 10,6 C 63 % 1011,9 hPa 0,0 l/m 0 min 0 min 0 W/m 38,6 km/h (5 Bft) 97,87 %
01.01.2023 05:10 15,4 C 14,4 C 10,0 C 63 % 1011,9 hPa 0,0 l/m 0 min 0 min 0 W/m 25,7 km/h (4 Bft) 97,87 %
01.01.2023 05:12 15,4 C 14,4 C 10,6 C 63 % 1011,9 hPa 0,0 l/m 0 min 0 min 0 W/m 35,4 km/h (5 Bft) 97,87 %
01.01.2023 05:14 15,4 C 14,4 C 10,6 C 63 % 1012,0 hPa 0,0 l/m 0 min 0 min 0 W/m 25,7 km/h (4 Bft) 97,87 %
01.01.2023 05:16 15,4 C 14,4 C 10,6 C 63 % 1011,9 hPa 0,0 l/m 0 min 0 min 0 W/m 51,5 km/h (7 Bft) 97,83 %
01.01.2023 05:18 15,4 C 14,4 C 10,6 C 64 % 1012,0 hPa 0,0 l/m 0 min 0 min 0 W/m 29,0 km/h (5 Bft) 97,87 %
01.01.2023 05:20 15,4 C 14,4 C 10,6 C 64 % 1012,0 hPa 0,0 l/m 0 min 0 min 0 W/m 22,5 km/h (4 Bft) 95,74 %
01.01.2023 05:22 15,4 C 14,4 C 10,6 C 64 % 1012,0 hPa 0,0 l/m 0 min 0 min 0 W/m 25,7 km/h (4 Bft) 95,74 %
01.01.2023 05:24 15,4 C 14,4 C 10,0 C 64 % 1012,0 hPa 0,0 l/m 0 min 0 min 0 W/m 32,2 km/h (5 Bft) 100,00 %
01.01.2023 05:26 15,3 C 14,4 C 10,0 C 64 % 1012,0 hPa 0,0 l/m 0 min 0 min 0 W/m 25,7 km/h (4 Bft) 97,87 %
01.01.2023 05:28 15,3 C 14,4 C 10,0 C 64 % 1012,0 hPa 0,0 l/m 0 min 0 min 0 W/m 32,2 km/h (5 Bft) 97,87 %
01.01.2023 05:30 15,3 C 14,4 C 10,0 C 65 % 1012,0 hPa 0,0 l/m 0 min 0 min 0 W/m 35,4 km/h (5 Bft) 97,83 %
01.01.2023 05:32 15,3 C 14,4 C 10,0 C 65 % 1012,1 hPa 0,0 l/m 0 min 0 min 0 W/m 35,4 km/h (5 Bft) 100,00 %
01.01.2023 05:34 15,3 C 14,4 C 10,0 C 65 % 1012,0 hPa 0,0 l/m 0 min 0 min 0 W/m 25,7 km/h (4 Bft) 100,00 %
01.01.2023 05:36 15,3 C 14,4 C 10,0 C 65 % 1012,0 hPa 0,0 l/m 0 min 0 min 0 W/m 22,5 km/h (4 Bft) 95,74 %
01.01.2023 05:38 15,3 C 14,4 C 10,0 C 65 % 1012,1 hPa 0,0 l/m 0 min 0 min 0 W/m 25,7 km/h (4 Bft) 97,87 %
01.01.2023 05:40 15,3 C 14,4 C 10,0 C 65 % 1012,2 hPa 0,0 l/m 0 min 0 min 0 W/m 25,7 km/h (4 Bft) 97,87 %
01.01.2023 05:42 15,3 C 14,4 C 10,0 C 65 % 1012,0 hPa 0,0 l/m 0 min 0 min 0 W/m 38,6 km/h (5 Bft) 97,87 %
01.01.2023 05:44 15,3 C 14,4 C 10,0 C 65 % 1012,1 hPa 0,0 l/m 0 min 0 min 0 W/m 25,7 km/h (4 Bft) 97,83 %
01.01.2023 05:46 15,2 C 14,4 C 10,0 C 65 % 1012,2 hPa 0,0 l/m 0 min 0 min 0 W/m 22,5 km/h (4 Bft) 97,87 %
01.01.2023 05:48 15,2 C 14,4 C 10,0 C 66 % 1012,2 hPa 0,0 l/m 0 min 0 min 0 W/m 32,2 km/h (5 Bft) 97,87 %
01.01.2023 05:50 15,2 C 14,4 C 10,0 C 66 % 1012,2 hPa 0,0 l/m 0 min 0 min 0 W/m 41,8 km/h (6 Bft) 97,87 %
01.01.2023 05:52 15,2 C 14,4 C 10,0 C 66 % 1012,2 hPa 0,0 l/m 0 min 0 min 0 W/m 41,8 km/h (6 Bft) 95,74 %
01.01.2023 05:54 15,2 C 14,4 C 10,0 C 66 % 1012,3 hPa 0,0 l/m 0 min 2 min 0 W/m 22,5 km/h (4 Bft) 97,87 %
01.01.2023 05:56 15,2 C 14,4 C 10,0 C 66 % 1012,3 hPa 0,0 l/m 0 min 0 min 0 W/m 29,0 km/h (5 Bft) 95,74 %
01.01.2023 05:58 15,2 C 14,4 C 10,0 C 66 % 1012,1 hPa 0,0 l/m 0 min 0 min 0 W/m 32,2 km/h (5 Bft) 93,48 %
01.01.2023 06:00 15,2 C 14,4 C 10,0 C 66 % 1012,1 hPa 0,0 l/m 0 min 0 min 0 W/m 29,0 km/h (5 Bft) 97,87 %
01.01.2023 06:02 15,2 C 14,4 C 10,0 C 66 % 1012,1 hPa 0,0 l/m 0 min 0 min 0 W/m 22,5 km/h (4 Bft) 97,87 %
01.01.2023 06:04 15,2 C 14,4 C 10,0 C 66 % 1012,2 hPa 0,0 l/m 0 min 0 min 0 W/m 25,7 km/h (4 Bft) 95,74 %
01.01.2023 06:08 15,2 C 14,4 C 10,0 C 66 % 1012,1 hPa 0,0 l/m 0 min 0 min 0 W/m 35,4 km/h (5 Bft) 97,92 %
01.01.2023 06:10 15,2 C 14,4 C 10,0 C 66 % 1012,1 hPa 0,0 l/m 0 min 0 min 0 W/m 38,6 km/h (5 Bft) 95,74 %
01.01.2023 06:12 15,2 C 14,4 C 10,0 C 66 % 1011,9 hPa 0,0 l/m 0 min 0 min 0 W/m 35,4 km/h (5 Bft) 95,65 %
01.01.2023 06:14 15,2 C 14,4 C 10,0 C 66 % 1011,9 hPa 0,0 l/m 0 min 0 min 0 W/m 29,0 km/h (5 Bft) 97,22 %
01.01.2023 06:16 15,1 C 14,4 C 10,0 C 66 % 1012,0 hPa 0,0 l/m 0 min 0 min 0 W/m 32,2 km/h (5 Bft) 94,83 %
01.01.2023 06:18 15,2 C 14,4 C 10,0 C 66 % 1012,1 hPa 0,0 l/m 0 min 0 min 0 W/m 38,6 km/h (5 Bft) 91,43 %
01.01.2023 06:20 15,2 C 14,4 C 10,0 C 66 % 1012,3 hPa 0,0 l/m 0 min 0 min 0 W/m 38,6 km/h (5 Bft) 96,61 %
01.01.2023 06:22 15,2 C 14,4 C 10,0 C 66 % 1012,3 hPa 0,0 l/m 0 min 0 min 0 W/m 29,0 km/h (5 Bft) 94,29 %
01.01.2023 06:24 15,2 C 14,4 C 10,0 C 66 % 1012,3 hPa 0,0 l/m 0 min 0 min 0 W/m 51,5 km/h (7 Bft) 93,62 %
01.01.2023 06:26 15,2 C 14,4 C 10,0 C 66 % 1012,3 hPa 0,0 l/m 0 min 0 min 0 W/m 25,7 km/h (4 Bft) 97,87 %
01.01.2023 06:28 15,2 C 14,4 C 10,0 C 66 % 1012,3 hPa 0,0 l/m 0 min 0 min 0 W/m 22,5 km/h (4 Bft) 93,62 %
01.01.2023 06:30 15,2 C 13,9 C 10,0 C 66 % 1012,4 hPa 0,0 l/m 0 min 0 min 0 W/m 19,3 km/h (3 Bft) 97,83 %
01.01.2023 06:32 15,1 C 14,4 C 10,0 C 66 % 1012,4 hPa 0,0 l/m 0 min 0 min 0 W/m 35,4 km/h (5 Bft) 97,87 %
01.01.2023 06:34 15,1 C 13,9 C 10,0 C 66 % 1012,4 hPa 0,0 l/m 0 min 0 min 0 W/m 12,9 km/h (3 Bft) 95,74 %
01.01.2023 06:36 15,1 C 13,9 C 10,0 C 66 % 1012,5 hPa 0,0 l/m 0 min 0 min 0 W/m 22,5 km/h (4 Bft) 97,87 %
01.01.2023 06:38 15,1 C 13,9 C 10,0 C 67 % 1012,5 hPa 0,0 l/m 0 min 0 min 0 W/m 22,5 km/h (4 Bft) 97,87 %
01.01.2023 06:40 15,1 C 13,9 C 10,0 C 67 % 1012,5 hPa 0,0 l/m 0 min 0 min 0 W/m 35,4 km/h (5 Bft) 95,74 %
01.01.2023 06:42 15,1 C 13,9 C 10,0 C 67 % 1012,6 hPa 0,0 l/m 0 min 0 min 0 W/m 29,0 km/h (5 Bft) 97,87 %
01.01.2023 06:44 15,0 C 13,9 C 10,0 C 67 % 1012,7 hPa 0,0 l/m 0 min 0 min 0 W/m 29,0 km/h (5 Bft) 97,83 %
01.01.2023 06:46 15,0 C 13,9 C 10,0 C 67 % 1012,6 hPa 0,0 l/m 0 min 0 min 0 W/m 22,5 km/h (4 Bft) 95,74 %
01.01.2023 06:48 15,0 C 13,9 C 10,0 C 67 % 1012,7 hPa 0,0 l/m 0 min 0 min 0 W/m 29,0 km/h (5 Bft) 97,87 %
01.01.2023 06:50 15,0 C 13,9 C 10,0 C 67 % 1012,7 hPa 0,0 l/m 0 min 2 min 0 W/m 29,0 km/h (5 Bft) 97,87 %
01.01.2023 06:52 15,0 C 13,9 C 9,4 C 68 % 1012,7 hPa 0,0 l/m 0 min 2 min 0 W/m 29,0 km/h (5 Bft) 95,74 %
01.01.2023 06:54 15,0 C 13,9 C 8,9 C 69 % 1012,7 hPa 0,0 l/m 0 min 2 min 0 W/m 19,3 km/h (3 Bft) 100,00 %
01.01.2023 06:56 14,9 C 13,9 C 8,9 C 69 % 1012,6 hPa 0,0 l/m 0 min 0 min 0 W/m 32,2 km/h (5 Bft) 100,00 %
01.01.2023 06:58 14,9 C 13,9 C 8,9 C 69 % 1012,7 hPa 0,0 l/m 0 min 2 min 0 W/m 29,0 km/h (5 Bft) 97,83 %
01.01.2023 07:00 14,8 C 13,9 C 9,4 C 69 % 1012,8 hPa 0,0 l/m 0 min 0 min 0 W/m 25,7 km/h (4 Bft) 100,00 %
01.01.2023 07:02 14,8 C 13,9 C 9,4 C 69 % 1012,9 hPa 0,0 l/m 0 min 0 min 0 W/m 25,7 km/h (4 Bft) 100,00 %
01.01.2023 07:04 14,8 C 13,9 C 9,4 C 69 % 1012,9 hPa 0,0 l/m 0 min 0 min 0 W/m 38,6 km/h (5 Bft) 97,87 %
01.01.2023 07:06 14,7 C 13,9 C 9,4 C 69 % 1013,0 hPa 0,0 l/m 0 min 0 min 0 W/m 32,2 km/h (5 Bft) 98,31 %
01.01.2023 07:08 14,7 C 13,9 C 9,4 C 69 % 1012,9 hPa 0,0 l/m 0 min 0 min 0 W/m 25,7 km/h (4 Bft) 100,00 %
01.01.2023 07:10 14,7 C 13,9 C 9,4 C 69 % 1012,9 hPa 0,0 l/m 0 min 0 min 0 W/m 29,0 km/h (5 Bft) 97,87 %
01.01.2023 07:12 14,7 C 13,9 C 9,4 C 69 % 1013,0 hPa 0,0 l/m 0 min 0 min 0 W/m 29,0 km/h (5 Bft) 100,00 %
01.01.2023 07:14 14,7 C 13,9 C 9,4 C 69 % 1013,0 hPa 0,0 l/m 0 min 0 min 0 W/m 25,7 km/h (4 Bft) 100,00 %
01.01.2023 07:16 14,7 C 13,9 C 9,4 C 69 % 1013,0 hPa 0,0 l/m 0 min 0 min 0 W/m 22,5 km/h (4 Bft) 97,87 %
01.01.2023 07:18 14,7 C 13,9 C 9,4 C 70 % 1013,1 hPa 0,0 l/m 0 min 0 min 0 W/m 22,5 km/h (4 Bft) 100,00 %
01.01.2023 07:20 14,7 C 13,9 C 9,4 C 69 % 1013,0 hPa 0,0 l/m 0 min 0 min 0 W/m 32,2 km/h (5 Bft) 97,87 %
01.01.2023 07:22 14,7 C 13,9 C 9,4 C 69 % 1013,1 hPa 0,0 l/m 0 min 0 min 0 W/m 16,1 km/h (3 Bft) 95,74 %
01.01.2023 07:24 14,7 C 13,9 C 10,0 C 69 % 1013,1 hPa 0,0 l/m 0 min 0 min 0 W/m 25,7 km/h (4 Bft) 97,87 %
01.01.2023 07:26 14,7 C 13,9 C 9,4 C 69 % 1013,1 hPa 0,0 l/m 0 min 0 min 0 W/m 25,7 km/h (4 Bft) 97,87 %
01.01.2023 07:28 14,7 C 13,9 C 9,4 C 69 % 1013,2 hPa 0,0 l/m 0 min 0 min 0 W/m 29,0 km/h (5 Bft) 93,48 %
01.01.2023 07:30 14,7 C 13,9 C 9,4 C 69 % 1013,3 hPa 0,0 l/m 0 min 0 min 0 W/m 16,1 km/h (3 Bft) 97,87 %
01.01.2023 07:32 14,7 C 13,9 C 9,4 C 70 % 1013,3 hPa 0,0 l/m 0 min 0 min 0 W/m 22,5 km/h (4 Bft) 97,87 %
01.01.2023 07:34 14,7 C 13,9 C 10,0 C 70 % 1013,3 hPa 0,0 l/m 0 min 0 min 0 W/m 41,8 km/h (6 Bft) 97,87 %
01.01.2023 07:36 14,7 C 13,9 C 10,0 C 69 % 1013,3 hPa 0,0 l/m 0 min 0 min 0 W/m 41,8 km/h (6 Bft) 97,87 %
01.01.2023 07:38 14,8 C 13,9 C 10,0 C 69 % 1013,3 hPa 0,0 l/m 0 min 0 min 0 W/m 22,5 km/h (4 Bft) 95,74 %
01.01.2023 07:40 14,8 C 13,9 C 10,0 C 69 % 1013,4 hPa 0,0 l/m 0 min 0 min 0 W/m 25,7 km/h (4 Bft) 97,87 %
01.01.2023 07:42 14,8 C 13,9 C 10,0 C 69 % 1013,5 hPa 0,0 l/m 0 min 0 min 0 W/m 25,7 km/h (4 Bft) 95,65 %
01.01.2023 07:44 14,8 C 13,9 C 10,0 C 69 % 1013,6 hPa 0,0 l/m 0 min 0 min 0 W/m 32,2 km/h (5 Bft) 95,74 %
01.01.2023 07:46 14,8 C 13,9 C 10,0 C 69 % 1013,6 hPa 0,0 l/m 0 min 0 min 0 W/m 38,6 km/h (5 Bft) 97,87 %
01.01.2023 07:48 14,8 C 13,9 C 10,0 C 69 % 1013,4 hPa 0,0 l/m 0 min 0 min 0 W/m 29,0 km/h (5 Bft) 97,87 %
01.01.2023 07:50 14,8 C 13,9 C 9,4 C 70 % 1013,5 hPa 0,0 l/m 0 min 0 min 0 W/m 29,0 km/h (5 Bft) 97,87 %
01.01.2023 07:52 14,8 C 13,9 C 9,4 C 70 % 1013,6 hPa 0,0 l/m 0 min 0 min 0 W/m 25,7 km/h (4 Bft) 97,87 %
01.01.2023 07:54 14,8 C 13,9 C 9,4 C 70 % 1013,6 hPa 0,0 l/m 0 min 0 min 0 W/m 38,6 km/h (5 Bft) 97,87 %
01.01.2023 07:56 14,8 C 13,9 C 9,4 C 70 % 1013,6 hPa 0,0 l/m 0 min 0 min 0 W/m 25,7 km/h (4 Bft) 95,74 %
01.01.2023 07:58 14,8 C 13,9 C 9,4 C 70 % 1013,6 hPa 0,0 l/m 0 min 0 min 0 W/m 22,5 km/h (4 Bft) 97,83 %
01.01.2023 08:00 14,7 C 13,9 C 9,4 C 70 % 1013,6 hPa 0,0 l/m 0 min 0 min 0 W/m 16,1 km/h (3 Bft) 97,87 %
01.01.2023 08:02 14,7 C 13,9 C 9,4 C 70 % 1013,6 hPa 0,0 l/m 0 min 0 min 0 W/m 22,5 km/h (4 Bft) 93,62 %
01.01.2023 08:04 14,7 C 13,9 C 9,4 C 70 % 1013,6 hPa 0,0 l/m 0 min 0 min 0 W/m 32,2 km/h (5 Bft) 97,87 %
01.01.2023 08:06 14,7 C 13,9 C 9,4 C 70 % 1013,7 hPa 0,0 l/m 0 min 0 min 0 W/m 35,4 km/h (5 Bft) 98,31 %
01.01.2023 08:08 14,7 C 13,9 C 9,4 C 70 % 1013,8 hPa 0,0 l/m 0 min 0 min 0 W/m 32,2 km/h (5 Bft) 93,10 %
01.01.2023 08:10 14,7 C 13,9 C 9,4 C 70 % 1013,8 hPa 0,0 l/m 0 min 0 min 0 W/m 22,5 km/h (4 Bft) 93,62 %
01.01.2023 08:12 14,7 C 13,9 C 9,4 C 70 % 1013,8 hPa 0,0 l/m 0 min 0 min 0 W/m 22,5 km/h (4 Bft) 100,00 %
01.01.2023 08:14 14,7 C 13,9 C 9,4 C 71 % 1013,8 hPa 0,0 l/m 0 min 0 min 0 W/m 41,8 km/h (6 Bft) 97,83 %
01.01.2023 08:16 14,7 C 13,9 C 9,4 C 71 % 1013,9 hPa 0,0 l/m 0 min 0 min 0 W/m 38,6 km/h (5 Bft) 94,34 %
01.01.2023 08:18 14,7 C 13,9 C 9,4 C 71 % 1014,0 hPa 0,0 l/m 0 min 0 min 0 W/m 19,3 km/h (3 Bft) 95,74 %
01.01.2023 08:20 14,7 C 13,9 C 9,4 C 71 % 1014,1 hPa 0,0 l/m 0 min 0 min 0 W/m 22,5 km/h (4 Bft) 97,87 %
01.01.2023 08:22 14,7 C 13,3 C 9,4 C 71 % 1014,1 hPa 0,0 l/m 0 min 2 min 0 W/m 38,6 km/h (5 Bft) 97,87 %
01.01.2023 08:24 14,7 C 13,3 C 9,4 C 72 % 1014,2 hPa 0,0 l/m 0 min 2 min 0 W/m 25,7 km/h (4 Bft) 95,74 %
01.01.2023 08:26 14,6 C 13,3 C 8,9 C 72 % 1014,2 hPa 0,0 l/m 0 min 2 min 0 W/m 45,1 km/h (6 Bft) 89,13 %
01.01.2023 08:28 14,6 C 13,3 C 8,3 C 73 % 1014,2 hPa 0,0 l/m 0 min 2 min 0 W/m 25,7 km/h (4 Bft) 95,74 %
01.01.2023 08:30 14,6 C 13,3 C 8,3 C 73 % 1014,4 hPa 0,0 l/m 0 min 2 min 0 W/m 32,2 km/h (5 Bft) 95,74 %
01.01.2023 08:32 14,5 C 13,3 C 8,3 C 74 % 1014,3 hPa 0,0 l/m 0 min 2 min 0 W/m 32,2 km/h (5 Bft) 95,74 %
01.01.2023 08:34 14,4 C 13,3 C 7,8 C 74 % 1014,3 hPa 0,0 l/m 0 min 2 min 0 W/m 22,5 km/h (4 Bft) 95,74 %
01.01.2023 08:36 14,3 C 13,3 C 7,8 C 74 % 1014,3 hPa 0,0 l/m 0 min 2 min 0 W/m 29,0 km/h (5 Bft) 95,74 %
01.01.2023 08:38 14,3 C 13,3 C 7,8 C 75 % 1014,2 hPa 0,0 l/m 0 min 2 min 0 W/m 25,7 km/h (4 Bft) 95,74 %
01.01.2023 08:40 14,3 C 13,3 C 7,8 C 75 % 1014,2 hPa 0,0 l/m 0 min 2 min 0 W/m 35,4 km/h (5 Bft) 76,60 %
01.01.2023 08:42 14,3 C 12,8 C 7,8 C 75 % 1014,4 hPa 0,0 l/m 0 min 2 min 0 W/m 51,5 km/h (7 Bft) 70,45 %
01.01.2023 08:44 14,3 C 12,8 C 7,8 C 76 % 1014,4 hPa 0,0 l/m 0 min 2 min 0 W/m 32,2 km/h (5 Bft) 95,74 %
01.01.2023 08:46 14,3 C 12,8 C 7,8 C 76 % 1014,5 hPa 0,0 l/m 0 min 2 min 0 W/m 32,2 km/h (5 Bft) 95,74 %
01.01.2023 08:48 14,2 C 12,8 C 7,8 C 76 % 1014,6 hPa 0,0 l/m 0 min 2 min 0 W/m 38,6 km/h (5 Bft) 93,62 %
01.01.2023 08:50 14,2 C 12,8 C 8,3 C 77 % 1014,6 hPa 0,0 l/m 0 min 2 min 0 W/m 22,5 km/h (4 Bft) 97,87 %
01.01.2023 08:52 14,1 C 13,3 C 8,9 C 76 % 1014,6 hPa 0,0 l/m 0 min 0 min 0 W/m 45,1 km/h (6 Bft) 97,87 %
01.01.2023 08:54 14,1 C 13,3 C 8,9 C 77 % 1014,5 hPa 0,0 l/m 0 min 0 min 0 W/m 35,4 km/h (5 Bft) 97,87 %
01.01.2023 08:56 14,1 C 13,3 C 8,9 C 77 % 1014,6 hPa 0,0 l/m 0 min 0 min 0 W/m 32,2 km/h (5 Bft) 97,83 %
01.01.2023 08:58 14,1 C 13,3 C 8,9 C 77 % 1014,6 hPa 0,0 l/m 0 min 0 min 0 W/m 38,6 km/h (5 Bft) 97,87 %
01.01.2023 09:00 14,1 C 13,3 C 8,9 C 77 % 1014,8 hPa 0,0 l/m 0 min 0 min 0 W/m 41,8 km/h (6 Bft) 97,87 %
01.01.2023 09:02 14,1 C 13,3 C 9,4 C 77 % 1014,8 hPa 0,0 l/m 0 min 0 min 0 W/m 29,0 km/h (5 Bft) 95,74 %
01.01.2023 09:04 14,1 C 13,3 C 9,4 C 77 % 1014,9 hPa 0,0 l/m 0 min 0 min 3 W/m 32,2 km/h (5 Bft) 95,24 %
01.01.2023 09:06 14,1 C 13,3 C 9,4 C 77 % 1014,8 hPa 0,0 l/m 0 min 0 min 5 W/m 41,8 km/h (6 Bft) 98,31 %
01.01.2023 09:08 14,1 C 13,3 C 9,4 C 77 % 1014,8 hPa 0,0 l/m 0 min 0 min 7 W/m 29,0 km/h (5 Bft) 97,14 %
01.01.2023 09:10 14,1 C 13,3 C 8,9 C 77 % 1014,8 hPa 0,0 l/m 0 min 0 min 7 W/m 29,0 km/h (5 Bft) 97,87 %
01.01.2023 09:12 14,1 C 13,3 C 8,9 C 77 % 1014,9 hPa 0,0 l/m 0 min 0 min 7 W/m 29,0 km/h (5 Bft) 100,00 %
01.01.2023 09:14 14,0 C 13,3 C 8,9 C 77 % 1014,9 hPa 0,0 l/m 0 min 0 min 7 W/m 25,7 km/h (4 Bft) 100,00 %
01.01.2023 09:16 14,0 C 13,3 C 8,9 C 77 % 1014,9 hPa 0,0 l/m 0 min 0 min 7 W/m 25,7 km/h (4 Bft) 100,00 %
01.01.2023 09:18 14,0 C 13,3 C 9,4 C 77 % 1014,8 hPa 0,0 l/m 0 min 0 min 8 W/m 35,4 km/h (5 Bft) 100,00 %
01.01.2023 09:20 14,0 C 13,3 C 9,4 C 77 % 1014,9 hPa 0,0 l/m 0 min 0 min 9 W/m 35,4 km/h (5 Bft) 100,00 %
01.01.2023 09:22 14,0 C 13,3 C 9,4 C 77 % 1014,9 hPa 0,0 l/m 0 min 0 min 10 W/m 41,8 km/h (6 Bft) 100,00 %
01.01.2023 09:24 14,0 C 13,3 C 9,4 C 77 % 1014,9 hPa 0,0 l/m 0 min 0 min 12 W/m 29,0 km/h (5 Bft) 100,00 %
01.01.2023 09:26 14,0 C 13,3 C 9,4 C 77 % 1014,9 hPa 0,0 l/m 0 min 0 min 15 W/m 29,0 km/h (5 Bft) 100,00 %
01.01.2023 09:28 14,0 C 13,3 C 9,4 C 77 % 1014,8 hPa 0,0 l/m 0 min 0 min 18 W/m 35,4 km/h (5 Bft) 97,87 %
01.01.2023 09:30 14,0 C 13,3 C 8,9 C 77 % 1014,8 hPa 0,0 l/m 0 min 0 min 19 W/m 32,2 km/h (5 Bft) 100,00 %
01.01.2023 09:32 14,0 C 13,3 C 8,9 C 77 % 1014,8 hPa 0,0 l/m 0 min 0 min 19 W/m 22,5 km/h (4 Bft) 100,00 %
01.01.2023 09:34 14,0 C 13,3 C 8,9 C 77 % 1015,0 hPa 0,0 l/m 0 min 0 min 19 W/m 25,7 km/h (4 Bft) 100,00 %
01.01.2023 09:36 14,0 C 13,3 C 8,9 C 77 % 1015,3 hPa 0,0 l/m 0 min 0 min 17 W/m 29,0 km/h (5 Bft) 100,00 %
01.01.2023 09:38 14,0 C 13,3 C 8,9 C 77 % 1015,2 hPa 0,0 l/m 0 min 0 min 18 W/m 25,7 km/h (4 Bft) 100,00 %
01.01.2023 09:40 14,0 C 13,3 C 8,9 C 77 % 1015,3 hPa 0,0 l/m 0 min 0 min 19 W/m 32,2 km/h (5 Bft) 100,00 %
01.01.2023 09:42 14,0 C 13,3 C 8,9 C 77 % 1015,3 hPa 0,0 l/m 0 min 0 min 18 W/m 16,1 km/h (3 Bft) 97,83 %
01.01.2023 09:44 13,9 C 13,3 C 8,9 C 78 % 1015,4 hPa 0,0 l/m 0 min 0 min 16 W/m 19,3 km/h (3 Bft) 100,00 %
01.01.2023 09:46 13,9 C 13,3 C 8,9 C 77 % 1015,4 hPa 0,0 l/m 0 min 0 min 18 W/m 22,5 km/h (4 Bft) 100,00 %
01.01.2023 09:48 13,9 C 13,3 C 8,9 C 78 % 1015,5 hPa 0,0 l/m 0 min 0 min 18 W/m 16,1 km/h (3 Bft) 100,00 %
01.01.2023 09:50 13,9 C 13,3 C 8,9 C 78 % 1015,4 hPa 0,0 l/m 0 min 0 min 21 W/m 12,9 km/h (3 Bft) 100,00 %
01.01.2023 09:52 13,9 C 13,3 C 8,9 C 78 % 1015,4 hPa 0,0 l/m 0 min 0 min 23 W/m 22,5 km/h (4 Bft) 100,00 %
01.01.2023 09:54 13,9 C 13,3 C 8,9 C 78 % 1015,4 hPa 0,0 l/m 0 min 0 min 25 W/m 16,1 km/h (3 Bft) 100,00 %
01.01.2023 09:56 13,9 C 13,3 C 8,9 C 78 % 1015,4 hPa 0,0 l/m 0 min 0 min 25 W/m 29,0 km/h (5 Bft) 97,87 %
01.01.2023 09:58 13,9 C 13,3 C 8,9 C 78 % 1015,5 hPa 0,0 l/m 0 min 0 min 24 W/m 16,1 km/h (3 Bft) 100,00 %
01.01.2023 10:00 13,9 C 13,3 C 8,9 C 78 % 1015,5 hPa 0,0 l/m 0 min 0 min 27 W/m 19,3 km/h (3 Bft) 100,00 %
01.01.2023 10:02 13,9 C 13,3 C 8,9 C 78 % 1015,6 hPa 0,0 l/m 0 min 0 min 31 W/m 22,5 km/h (4 Bft) 97,87 %
01.01.2023 10:04 13,9 C 13,3 C 8,9 C 78 % 1015,6 hPa 0,0 l/m 0 min 0 min 32 W/m 25,7 km/h (4 Bft) 100,00 %
01.01.2023 10:06 13,9 C 13,3 C 9,4 C 78 % 1015,6 hPa 0,0 l/m 0 min 0 min 32 W/m 29,0 km/h (5 Bft) 98,28 %
01.01.2023 10:08 14,0 C 13,3 C 9,4 C 77 % 1015,7 hPa 0,0 l/m 0 min 0 min 36 W/m 41,8 km/h (6 Bft) 100,00 %
01.01.2023 10:10 14,0 C 13,3 C 9,4 C 77 % 1015,8 hPa 0,0 l/m 0 min 0 min 36 W/m 35,4 km/h (5 Bft) 97,87 %
01.01.2023 10:12 14,0 C 13,3 C 9,4 C 77 % 1015,8 hPa 0,0 l/m 0 min 0 min 35 W/m 19,3 km/h (3 Bft) 95,74 %
01.01.2023 10:14 14,0 C 13,3 C 9,4 C 77 % 1015,8 hPa 0,0 l/m 0 min 0 min 35 W/m 22,5 km/h (4 Bft) 95,74 %
01.01.2023 10:16 14,0 C 13,3 C 9,4 C 77 % 1015,8 hPa 0,0 l/m 0 min 0 min 35 W/m 19,3 km/h (3 Bft) 95,74 %
01.01.2023 10:18 14,0 C 13,3 C 9,4 C 77 % 1015,9 hPa 0,0 l/m 0 min 0 min 37 W/m 16,1 km/h (3 Bft) 94,55 %
01.01.2023 10:20 14,1 C 13,3 C 9,4 C 77 % 1015,9 hPa 0,0 l/m 0 min 0 min 38 W/m 19,3 km/h (3 Bft) 93,88 %
01.01.2023 10:22 14,0 C 13,3 C 9,4 C 77 % 1015,8 hPa 0,0 l/m 0 min 0 min 42 W/m 19,3 km/h (3 Bft) 95,74 %
01.01.2023 10:24 14,1 C 13,3 C 9,4 C 77 % 1015,9 hPa 0,0 l/m 0 min 0 min 47 W/m 29,0 km/h (5 Bft) 95,74 %
01.01.2023 10:26 14,1 C 13,3 C 9,4 C 77 % 1015,9 hPa 0,0 l/m 0 min 0 min 49 W/m 22,5 km/h (4 Bft) 95,74 %
01.01.2023 10:28 14,1 C 13,3 C 9,4 C 77 % 1015,9 hPa 0,0 l/m 0 min 0 min 46 W/m 29,0 km/h (5 Bft) 95,74 %
01.01.2023 10:30 14,1 C 13,3 C 9,4 C 77 % 1015,7 hPa 0,0 l/m 0 min 0 min 45 W/m 25,7 km/h (4 Bft) 95,74 %
01.01.2023 10:32 14,1 C 13,3 C 9,4 C 77 % 1015,8 hPa 0,0 l/m 0 min 0 min 46 W/m 45,1 km/h (6 Bft) 94,44 %
01.01.2023 10:34 14,1 C 13,3 C 9,4 C 77 % 1015,8 hPa 0,0 l/m 0 min 0 min 42 W/m 29,0 km/h (5 Bft) 95,74 %
01.01.2023 10:36 14,1 C 13,3 C 9,4 C 77 % 1015,8 hPa 0,0 l/m 0 min 0 min 40 W/m 29,0 km/h (5 Bft) 93,62 %
01.01.2023 10:38 14,1 C 13,3 C 9,4 C 77 % 1016,0 hPa 0,0 l/m 0 min 0 min 41 W/m 38,6 km/h (5 Bft) 95,65 %
01.01.2023 10:40 14,1 C 13,3 C 9,4 C 77 % 1016,1 hPa 0,0 l/m 0 min 0 min 42 W/m 32,2 km/h (5 Bft) 93,62 %
01.01.2023 10:42 14,2 C 13,3 C 9,4 C 77 % 1016,1 hPa 0,0 l/m 0 min 0 min 39 W/m 35,4 km/h (5 Bft) 95,74 %
01.01.2023 10:44 14,1 C 13,3 C 9,4 C 77 % 1016,0 hPa 0,0 l/m 0 min 0 min 41 W/m 35,4 km/h (5 Bft) 97,87 %
01.01.2023 10:46 14,2 C 13,3 C 9,4 C 77 % 1015,9 hPa 0,0 l/m 0 min 0 min 44 W/m 25,7 km/h (4 Bft) 97,87 %
01.01.2023 10:48 14,2 C 13,3 C 9,4 C 77 % 1015,9 hPa 0,0 l/m 0 min 0 min 47 W/m 35,4 km/h (5 Bft) 95,74 %
01.01.2023 10:50 14,2 C 13,3 C 9,4 C 77 % 1015,9 hPa 0,0 l/m 0 min 0 min 49 W/m 35,4 km/h (5 Bft) 97,87 %
01.01.2023 10:52 14,2 C 13,3 C 9,4 C 77 % 1016,0 hPa 0,0 l/m 0 min 0 min 47 W/m 29,0 km/h (5 Bft) 97,83 %
01.01.2023 10:54 14,2 C 13,3 C 9,4 C 77 % 1016,1 hPa 0,0 l/m 0 min 0 min 43 W/m 29,0 km/h (5 Bft) 95,74 %
01.01.2023 10:56 14,2 C 13,3 C 9,4 C 77 % 1016,2 hPa 0,0 l/m 0 min 0 min 42 W/m 22,5 km/h (4 Bft) 95,74 %
01.01.2023 10:58 14,2 C 13,3 C 9,4 C 78 % 1016,3 hPa 0,0 l/m 0 min 0 min 40 W/m 16,1 km/h (3 Bft) 97,87 %
01.01.2023 11:00 14,2 C 13,3 C 9,4 C 78 % 1016,3 hPa 0,0 l/m 0 min 0 min 40 W/m 19,3 km/h (3 Bft) 100,00 %
01.01.2023 11:02 14,1 C 13,3 C 9,4 C 78 % 1016,2 hPa 0,0 l/m 0 min 0 min 39 W/m 16,1 km/h (3 Bft) 100,00 %
01.01.2023 11:04 14,1 C 13,3 C 9,4 C 78 % 1016,2 hPa 0,0 l/m 0 min 0 min 39 W/m 35,4 km/h (5 Bft) 95,74 %
01.01.2023 11:06 14,1 C 13,3 C 9,4 C 78 % 1016,2 hPa 0,0 l/m 0 min 0 min 41 W/m 25,7 km/h (4 Bft) 96,55 %
01.01.2023 11:08 14,1 C 13,3 C 9,4 C 78 % 1016,2 hPa 0,0 l/m 0 min 0 min 46 W/m 22,5 km/h (4 Bft) 91,43 %
01.01.2023 11:10 14,1 C 13,3 C 9,4 C 78 % 1016,1 hPa 0,0 l/m 0 min 0 min 49 W/m 22,5 km/h (4 Bft) 97,87 %
01.01.2023 11:12 14,1 C 13,3 C 9,4 C 78 % 1016,2 hPa 0,0 l/m 0 min 0 min 52 W/m 29,0 km/h (5 Bft) 97,87 %
01.01.2023 11:14 14,1 C 13,3 C 9,4 C 78 % 1016,1 hPa 0,0 l/m 0 min 0 min 54 W/m 29,0 km/h (5 Bft) 95,74 %
01.01.2023 11:16 14,1 C 13,3 C 9,4 C 78 % 1016,1 hPa 0,0 l/m 0 min 0 min 53 W/m 25,7 km/h (4 Bft) 97,87 %
01.01.2023 11:18 14,1 C 13,3 C 9,4 C 78 % 1016,1 hPa 0,0 l/m 0 min 0 min 53 W/m 41,8 km/h (6 Bft) 97,87 %
01.01.2023 11:20 14,1 C 13,3 C 9,4 C 78 % 1016,0 hPa 0,0 l/m 0 min 0 min 51 W/m 29,0 km/h (5 Bft) 97,83 %
01.01.2023 11:22 14,1 C 13,3 C 9,4 C 78 % 1016,0 hPa 0,0 l/m 0 min 0 min 53 W/m 25,7 km/h (4 Bft) 97,87 %
01.01.2023 11:24 14,1 C 13,3 C 9,4 C 78 % 1016,0 hPa 0,0 l/m 0 min 0 min 56 W/m 29,0 km/h (5 Bft) 97,87 %
01.01.2023 11:26 14,1 C 13,3 C 9,4 C 78 % 1016,1 hPa 0,0 l/m 0 min 0 min 56 W/m 38,6 km/h (5 Bft) 97,87 %
01.01.2023 11:28 14,2 C 13,3 C 9,4 C 77 % 1016,1 hPa 0,0 l/m 0 min 0 min 57 W/m 22,5 km/h (4 Bft) 96,36 %
01.01.2023 11:30 14,2 C 13,3 C 9,4 C 77 % 1016,2 hPa 0,0 l/m 0 min 0 min 56 W/m 32,2 km/h (5 Bft) 95,74 %
01.01.2023 11:32 14,2 C 13,3 C 9,4 C 77 % 1016,1 hPa 0,0 l/m 0 min 0 min 60 W/m 32,2 km/h (5 Bft) 95,65 %
01.01.2023 11:34 14,2 C 13,3 C 9,4 C 77 % 1016,0 hPa 0,0 l/m 0 min 0 min 64 W/m 19,3 km/h (3 Bft) 97,87 %
01.01.2023 11:36 14,2 C 13,3 C 9,4 C 77 % 1015,9 hPa 0,0 l/m 0 min 0 min 63 W/m 38,6 km/h (5 Bft) 97,87 %
01.01.2023 11:38 14,2 C 13,3 C 9,4 C 77 % 1016,0 hPa 0,0 l/m 0 min 0 min 63 W/m 25,7 km/h (4 Bft) 97,87 %
01.01.2023 11:40 14,2 C 13,3 C 9,4 C 77 % 1016,0 hPa 0,0 l/m 0 min 0 min 67 W/m 25,7 km/h (4 Bft) 97,87 %
01.01.2023 11:42 14,2 C 13,3 C 9,4 C 77 % 1016,0 hPa 0,0 l/m 0 min 0 min 69 W/m 32,2 km/h (5 Bft) 97,87 %
01.01.2023 11:44 14,2 C 13,9 C 9,4 C 77 % 1015,9 hPa 0,0 l/m 0 min 0 min 70 W/m 16,1 km/h (3 Bft) 97,83 %
01.01.2023 11:46 14,2 C 13,9 C 9,4 C 78 % 1015,9 hPa 0,0 l/m 0 min 0 min 73 W/m 25,7 km/h (4 Bft) 95,74 %
01.01.2023 11:48 14,2 C 13,9 C 9,4 C 77 % 1015,9 hPa 0,0 l/m 0 min 0 min 78 W/m 22,5 km/h (4 Bft) 97,87 %
01.01.2023 11:50 14,3 C 13,9 C 9,4 C 77 % 1016,0 hPa 0,0 l/m 0 min 0 min 83 W/m 16,1 km/h (3 Bft) 97,87 %
01.01.2023 11:52 14,3 C 13,9 C 9,4 C 77 % 1015,9 hPa 0,0 l/m 0 min 0 min 86 W/m 19,3 km/h (3 Bft) 100,00 %
01.01.2023 11:54 14,3 C 13,9 C 9,4 C 78 % 1016,0 hPa 0,0 l/m 0 min 0 min 90 W/m 16,1 km/h (3 Bft) 100,00 %
01.01.2023 11:56 14,3 C 13,9 C 9,4 C 78 % 1015,9 hPa 0,0 l/m 0 min 0 min 86 W/m 22,5 km/h (4 Bft) 100,00 %
01.01.2023 11:58 14,3 C 13,9 C 9,4 C 77 % 1016,1 hPa 0,0 l/m 0 min 0 min 83 W/m 29,0 km/h (5 Bft) 97,83 %
01.01.2023 12:00 14,3 C 13,9 C 9,4 C 77 % 1015,9 hPa 0,0 l/m 0 min 0 min 93 W/m 22,5 km/h (4 Bft) 100,00 %
01.01.2023 12:02 14,3 C 13,9 C 9,4 C 77 % 1015,9 hPa 0,0 l/m 0 min 0 min 101 W/m 29,0 km/h (5 Bft) 100,00 %
01.01.2023 12:04 14,3 C 13,9 C 10,0 C 77 % 1016,0 hPa 0,0 l/m 0 min 0 min 104 W/m 29,0 km/h (5 Bft) 97,87 %
01.01.2023 12:08 14,3 C 13,9 C 10,0 C 77 % 1016,0 hPa 0,0 l/m 0 min 0 min 101 W/m 45,1 km/h (6 Bft) 98,96 %
01.01.2023 12:10 14,3 C 13,9 C 10,0 C 77 % 1016,0 hPa 0,0 l/m 0 min 0 min 103 W/m 38,6 km/h (5 Bft) 97,87 %
01.01.2023 12:12 14,3 C 13,9 C 10,0 C 77 % 1016,0 hPa 0,0 l/m 0 min 0 min 107 W/m 25,7 km/h (4 Bft) 97,83 %
01.01.2023 12:14 14,3 C 13,9 C 10,0 C 77 % 1016,2 hPa 0,0 l/m 0 min 0 min 110 W/m 29,0 km/h (5 Bft) 97,87 %
01.01.2023 12:16 14,3 C 13,9 C 10,0 C 77 % 1016,2 hPa 0,0 l/m 0 min 0 min 95 W/m 22,5 km/h (4 Bft) 95,74 %
01.01.2023 12:18 14,3 C 13,9 C 10,0 C 77 % 1016,2 hPa 0,0 l/m 0 min 0 min 82 W/m 22,5 km/h (4 Bft) 97,87 %
01.01.2023 12:20 14,3 C 13,9 C 10,0 C 77 % 1016,3 hPa 0,0 l/m 0 min 0 min 74 W/m 32,2 km/h (5 Bft) 97,87 %
01.01.2023 12:22 14,3 C 13,9 C 10,0 C 77 % 1016,3 hPa 0,0 l/m 0 min 0 min 68 W/m 25,7 km/h (4 Bft) 97,87 %
01.01.2023 12:24 14,3 C 13,9 C 10,0 C 77 % 1016,4 hPa 0,0 l/m 0 min 0 min 65 W/m 22,5 km/h (4 Bft) 97,87 %
01.01.2023 12:26 14,3 C 13,9 C 10,0 C 77 % 1016,3 hPa 0,0 l/m 0 min 0 min 54 W/m 32,2 km/h (5 Bft) 97,83 %
01.01.2023 12:28 14,3 C 13,9 C 9,4 C 77 % 1016,3 hPa 0,0 l/m 0 min 0 min 54 W/m 29,0 km/h (5 Bft) 97,87 %
01.01.2023 12:30 14,3 C 13,9 C 9,4 C 77 % 1016,4 hPa 0,0 l/m 0 min 0 min 72 W/m 32,2 km/h (5 Bft) 97,87 %
01.01.2023 12:32 14,3 C 13,9 C 10,0 C 77 % 1016,5 hPa 0,0 l/m 0 min 0 min 84 W/m 22,5 km/h (4 Bft) 93,62 %
01.01.2023 12:34 14,3 C 13,9 C 10,0 C 77 % 1016,5 hPa 0,0 l/m 0 min 0 min 81 W/m 25,7 km/h (4 Bft) 95,74 %
01.01.2023 12:36 14,3 C 13,9 C 10,0 C 77 % 1016,5 hPa 0,0 l/m 0 min 0 min 68 W/m 32,2 km/h (5 Bft) 93,62 %
01.01.2023 12:38 14,3 C 13,9 C 10,0 C 77 % 1016,6 hPa 0,0 l/m 0 min 0 min 71 W/m 22,5 km/h (4 Bft) 97,87 %
01.01.2023 12:40 14,3 C 13,9 C 10,0 C 77 % 1016,6 hPa 0,0 l/m 0 min 0 min 76 W/m 25,7 km/h (4 Bft) 97,87 %
01.01.2023 12:42 14,3 C 13,9 C 10,0 C 77 % 1016,6 hPa 0,0 l/m 0 min 0 min 79 W/m 19,3 km/h (3 Bft) 97,83 %
01.01.2023 12:44 14,3 C 13,9 C 10,0 C 77 % 1016,6 hPa 0,0 l/m 0 min 0 min 81 W/m 25,7 km/h (4 Bft) 97,87 %
01.01.2023 12:46 14,3 C 13,9 C 10,0 C 77 % 1016,6 hPa 0,0 l/m 0 min 0 min 80 W/m 29,0 km/h (5 Bft) 100,00 %
01.01.2023 12:48 14,3 C 13,9 C 10,0 C 77 % 1016,6 hPa 0,0 l/m 0 min 0 min 77 W/m 22,5 km/h (4 Bft) 100,00 %
01.01.2023 12:50 14,4 C 13,9 C 10,0 C 77 % 1016,6 hPa 0,0 l/m 0 min 0 min 65 W/m 12,9 km/h (3 Bft) 100,00 %
01.01.2023 12:52 14,4 C 13,9 C 9,4 C 77 % 1016,6 hPa 0,0 l/m 0 min 0 min 64 W/m 22,5 km/h (4 Bft) 100,00 %
01.01.2023 12:54 14,3 C 13,9 C 10,0 C 77 % 1016,5 hPa 0,0 l/m 0 min 0 min 52 W/m 32,2 km/h (5 Bft) 97,87 %
01.01.2023 12:56 14,3 C 13,9 C 9,4 C 76 % 1016,5 hPa 0,0 l/m 0 min 0 min 51 W/m 32,2 km/h (5 Bft) 97,87 %
01.01.2023 12:58 14,3 C 13,9 C 9,4 C 76 % 1016,5 hPa 0,0 l/m 0 min 0 min 54 W/m 25,7 km/h (4 Bft) 97,87 %
01.01.2023 13:00 14,3 C 13,9 C 9,4 C 76 % 1016,4 hPa 0,0 l/m 0 min 0 min 58 W/m 32,2 km/h (5 Bft) 97,87 %
01.01.2023 13:02 14,3 C 13,9 C 10,0 C 76 % 1016,5 hPa 0,0 l/m 0 min 0 min 71 W/m 38,6 km/h (5 Bft) 95,74 %
01.01.2023 13:04 14,3 C 13,9 C 10,0 C 76 % 1016,3 hPa 0,0 l/m 0 min 0 min 74 W/m 22,5 km/h (4 Bft) 97,87 %
01.01.2023 13:06 14,3 C 13,9 C 10,0 C 76 % 1016,4 hPa 0,0 l/m 0 min 0 min 69 W/m 16,1 km/h (3 Bft) 97,87 %
01.01.2023 13:08 14,3 C 13,9 C 10,0 C 76 % 1016,3 hPa 0,0 l/m 0 min 0 min 68 W/m 19,3 km/h (3 Bft) 97,83 %
01.01.2023 13:10 14,3 C 13,9 C 10,0 C 76 % 1016,2 hPa 0,0 l/m 0 min 0 min 64 W/m 22,5 km/h (4 Bft) 95,74 %
01.01.2023 13:12 14,3 C 13,9 C 10,0 C 76 % 1016,3 hPa 0,0 l/m 0 min 0 min 62 W/m 29,0 km/h (5 Bft) 97,87 %
01.01.2023 13:14 14,3 C 13,9 C 9,4 C 76 % 1016,2 hPa 0,0 l/m 0 min 0 min 60 W/m 29,0 km/h (5 Bft) 97,87 %
01.01.2023 13:16 14,3 C 13,9 C 9,4 C 76 % 1016,3 hPa 0,0 l/m 0 min 0 min 63 W/m 16,1 km/h (3 Bft) 97,87 %
01.01.2023 13:18 14,3 C 13,9 C 9,4 C 76 % 1016,2 hPa 0,0 l/m 0 min 0 min 68 W/m 16,1 km/h (3 Bft) 95,74 %
01.01.2023 13:20 14,3 C 13,9 C 9,4 C 77 % 1016,3 hPa 0,0 l/m 0 min 0 min 64 W/m 19,3 km/h (3 Bft) 97,83 %
01.01.2023 13:22 14,3 C 13,9 C 9,4 C 77 % 1016,2 hPa 0,0 l/m 0 min 0 min 66 W/m 32,2 km/h (5 Bft) 97,87 %
01.01.2023 13:24 14,3 C 13,9 C 9,4 C 76 % 1016,3 hPa 0,0 l/m 0 min 0 min 74 W/m 25,7 km/h (4 Bft) 97,87 %
01.01.2023 13:26 14,3 C 13,9 C 9,4 C 76 % 1016,2 hPa 0,0 l/m 0 min 0 min 79 W/m 25,7 km/h (4 Bft) 95,74 %
01.01.2023 13:28 14,3 C 13,9 C 9,4 C 76 % 1016,1 hPa 0,0 l/m 0 min 0 min 76 W/m 41,8 km/h (6 Bft) 95,74 %
01.01.2023 13:30 14,3 C 13,9 C 9,4 C 76 % 1016,1 hPa 0,0 l/m 0 min 0 min 71 W/m 25,7 km/h (4 Bft) 97,87 %
01.01.2023 13:32 14,3 C 13,9 C 9,4 C 76 % 1016,1 hPa 0,0 l/m 0 min 0 min 68 W/m 29,0 km/h (5 Bft) 97,87 %
01.01.2023 13:34 14,3 C 13,9 C 9,4 C 76 % 1016,1 hPa 0,0 l/m 0 min 0 min 63 W/m 29,0 km/h (5 Bft) 97,83 %
01.01.2023 13:36 14,3 C 13,9 C 9,4 C 76 % 1016,1 hPa 0,0 l/m 0 min 0 min 56 W/m 22,5 km/h (4 Bft) 97,87 %
01.01.2023 13:38 14,3 C 13,9 C 9,4 C 76 % 1016,2 hPa 0,0 l/m 0 min 0 min 50 W/m 25,7 km/h (4 Bft) 97,87 %
01.01.2023 13:40 14,3 C 13,9 C 9,4 C 76 % 1016,2 hPa 0,0 l/m 0 min 0 min 48 W/m 32,2 km/h (5 Bft) 95,74 %
01.01.2023 13:42 14,3 C 13,3 C 9,4 C 76 % 1016,3 hPa 0,0 l/m 0 min 0 min 50 W/m 29,0 km/h (5 Bft) 100,00 %
01.01.2023 13:44 14,3 C 13,3 C 9,4 C 76 % 1016,1 hPa 0,0 l/m 0 min 0 min 51 W/m 29,0 km/h (5 Bft) 100,00 %
01.01.2023 13:46 14,3 C 13,3 C 9,4 C 76 % 1016,2 hPa 0,0 l/m 0 min 0 min 51 W/m 19,3 km/h (3 Bft) 97,87 %
01.01.2023 13:48 14,3 C 13,3 C 9,4 C 77 % 1016,3 hPa 0,0 l/m 0 min 0 min 50 W/m 19,3 km/h (3 Bft) 97,83 %
01.01.2023 13:50 14,3 C 13,3 C 9,4 C 77 % 1016,3 hPa 0,0 l/m 0 min 0 min 52 W/m 22,5 km/h (4 Bft) 97,22 %
01.01.2023 13:52 14,3 C 13,3 C 9,4 C 77 % 1016,3 hPa 0,0 l/m 0 min 0 min 56 W/m 22,5 km/h (4 Bft) 97,83 %
01.01.2023 13:54 14,3 C 13,3 C 9,4 C 77 % 1016,2 hPa 0,0 l/m 0 min 0 min 60 W/m 29,0 km/h (5 Bft) 97,87 %
01.01.2023 13:56 14,3 C 13,3 C 9,4 C 77 % 1016,2 hPa 0,0 l/m 0 min 0 min 64 W/m 16,1 km/h (3 Bft) 95,74 %
01.01.2023 13:58 14,3 C 13,3 C 9,4 C 77 % 1016,1 hPa 0,0 l/m 0 min 0 min 64 W/m 25,7 km/h (4 Bft) 94,92 %
01.01.2023 14:00 14,3 C 13,3 C 9,4 C 77 % 1016,1 hPa 0,0 l/m 0 min 0 min 64 W/m 29,0 km/h (5 Bft) 97,14 %
01.01.2023 14:02 14,3 C 13,3 C 9,4 C 77 % 1016,1 hPa 0,0 l/m 0 min 0 min 63 W/m 22,5 km/h (4 Bft) 95,74 %
01.01.2023 14:04 14,3 C 13,3 C 9,4 C 77 % 1016,2 hPa 0,0 l/m 0 min 0 min 55 W/m 29,0 km/h (5 Bft) 97,87 %
01.01.2023 14:06 14,3 C 13,3 C 9,4 C 76 % 1016,1 hPa 0,0 l/m 0 min 0 min 48 W/m 32,2 km/h (5 Bft) 94,83 %
01.01.2023 14:08 14,3 C 13,3 C 9,4 C 76 % 1016,1 hPa 0,0 l/m 0 min 0 min 46 W/m 25,7 km/h (4 Bft) 95,74 %
01.01.2023 14:10 14,3 C 13,3 C 9,4 C 76 % 1016,2 hPa 0,0 l/m 0 min 0 min 46 W/m 38,6 km/h (5 Bft) 97,14 %
01.01.2023 14:12 14,3 C 13,3 C 9,4 C 76 % 1016,1 hPa 0,0 l/m 0 min 0 min 43 W/m 19,3 km/h (3 Bft) 93,62 %
01.01.2023 14:14 14,3 C 13,3 C 9,4 C 76 % 1016,2 hPa 0,0 l/m 0 min 0 min 40 W/m 25,7 km/h (4 Bft) 95,74 %
01.01.2023 14:16 14,2 C 13,3 C 9,4 C 76 % 1016,3 hPa 0,0 l/m 0 min 0 min 40 W/m 25,7 km/h (4 Bft) 93,62 %
01.01.2023 14:18 14,2 C 13,3 C 9,4 C 76 % 1016,3 hPa 0,0 l/m 0 min 0 min 39 W/m 38,6 km/h (5 Bft) 93,62 %
01.01.2023 14:20 14,2 C 13,3 C 9,4 C 76 % 1016,3 hPa 0,0 l/m 0 min 0 min 36 W/m 19,3 km/h (3 Bft) 95,65 %
01.01.2023 14:22 14,2 C 13,3 C 9,4 C 76 % 1016,3 hPa 0,0 l/m 0 min 0 min 35 W/m 22,5 km/h (4 Bft) 93,62 %
01.01.2023 14:24 14,2 C 13,3 C 9,4 C 76 % 1016,2 hPa 0,0 l/m 0 min 0 min 35 W/m 16,1 km/h (3 Bft) 95,74 %
01.01.2023 14:26 14,2 C 13,3 C 9,4 C 76 % 1016,4 hPa 0,0 l/m 0 min 0 min 35 W/m 12,9 km/h (3 Bft) 95,74 %
01.01.2023 14:28 14,2 C 13,3 C 9,4 C 76 % 1016,3 hPa 0,0 l/m 0 min 0 min 34 W/m 22,5 km/h (4 Bft) 95,74 %
01.01.2023 14:30 14,1 C 13,3 C 9,4 C 76 % 1016,3 hPa 0,0 l/m 0 min 0 min 35 W/m 38,6 km/h (5 Bft) 95,74 %
01.01.2023 14:32 14,1 C 13,3 C 9,4 C 76 % 1016,3 hPa 0,0 l/m 0 min 0 min 35 W/m 19,3 km/h (3 Bft) 95,74 %
01.01.2023 14:34 14,1 C 13,3 C 9,4 C 77 % 1016,3 hPa 0,0 l/m 0 min 0 min 33 W/m 25,7 km/h (4 Bft) 95,65 %
01.01.2023 14:36 14,1 C 13,3 C 9,4 C 76 % 1016,2 hPa 0,0 l/m 0 min 0 min 33 W/m 19,3 km/h (3 Bft) 97,87 %
01.01.2023 14:38 14,1 C 13,3 C 9,4 C 76 % 1016,2 hPa 0,0 l/m 0 min 0 min 33 W/m 16,1 km/h (3 Bft) 95,74 %
01.01.2023 14:40 14,1 C 13,3 C 9,4 C 76 % 1016,1 hPa 0,0 l/m 0 min 0 min 34 W/m 16,1 km/h (3 Bft) 95,74 %
01.01.2023 14:42 14,1 C 13,3 C 9,4 C 77 % 1016,1 hPa 0,0 l/m 0 min 0 min 36 W/m 12,9 km/h (3 Bft) 97,83 %
01.01.2023 14:44 14,1 C 13,3 C 9,4 C 76 % 1016,2 hPa 0,0 l/m 0 min 0 min 37 W/m 25,7 km/h (4 Bft) 95,74 %
01.01.2023 14:46 14,1 C 13,3 C 9,4 C 76 % 1016,2 hPa 0,0 l/m 0 min 0 min 37 W/m 19,3 km/h (3 Bft) 100,00 %
01.01.2023 14:48 14,1 C 13,3 C 9,4 C 76 % 1016,2 hPa 0,0 l/m 0 min 0 min 37 W/m 19,3 km/h (3 Bft) 100,00 %
01.01.2023 14:50 14,0 C 13,3 C 9,4 C 76 % 1016,2 hPa 0,0 l/m 0 min 0 min 35 W/m 12,9 km/h (3 Bft) 100,00 %
01.01.2023 14:52 14,1 C 13,3 C 9,4 C 76 % 1016,2 hPa 0,0 l/m 0 min 0 min 34 W/m 16,1 km/h (3 Bft) 97,87 %
01.01.2023 14:54 14,0 C 13,3 C 9,4 C 76 % 1016,2 hPa 0,0 l/m 0 min 0 min 31 W/m 12,9 km/h (3 Bft) 100,00 %
01.01.2023 14:56 14,0 C 13,3 C 9,4 C 76 % 1016,2 hPa 0,0 l/m 0 min 0 min 29 W/m 16,1 km/h (3 Bft) 100,00 %
01.01.2023 14:58 14,0 C 13,3 C 9,4 C 76 % 1016,2 hPa 0,0 l/m 0 min 0 min 26 W/m 19,3 km/h (3 Bft) 100,00 %
01.01.2023 15:00 14,0 C 13,3 C 9,4 C 76 % 1016,1 hPa 0,0 l/m 0 min 0 min 25 W/m 12,9 km/h (3 Bft) 100,00 %
01.01.2023 15:02 14,0 C 13,3 C 9,4 C 76 % 1016,1 hPa 0,0 l/m 0 min 0 min 26 W/m 19,3 km/h (3 Bft) 95,74 %
01.01.2023 15:04 14,0 C 13,3 C 9,4 C 76 % 1016,1 hPa 0,0 l/m 0 min 0 min 26 W/m 16,1 km/h (3 Bft) 100,00 %
01.01.2023 15:06 13,9 C 13,3 C 9,4 C 76 % 1016,2 hPa 0,0 l/m 0 min 0 min 26 W/m 19,3 km/h (3 Bft) 100,00 %
01.01.2023 15:08 13,9 C 13,3 C 9,4 C 76 % 1016,1 hPa 0,0 l/m 0 min 0 min 26 W/m 16,1 km/h (3 Bft) 100,00 %
01.01.2023 15:10 13,9 C 13,3 C 8,9 C 76 % 1016,1 hPa 0,0 l/m 0 min 0 min 26 W/m 19,3 km/h (3 Bft) 97,87 %
01.01.2023 15:12 13,9 C 13,3 C 8,9 C 76 % 1016,1 hPa 0,0 l/m 0 min 0 min 25 W/m 12,9 km/h (3 Bft) 100,00 %
01.01.2023 15:14 13,9 C 13,3 C 8,9 C 77 % 1016,1 hPa 0,0 l/m 0 min 0 min 25 W/m 12,9 km/h (3 Bft) 100,00 %
01.01.2023 15:16 13,9 C 12,8 C 8,9 C 77 % 1016,1 hPa 0,0 l/m 0 min 0 min 25 W/m 12,9 km/h (3 Bft) 100,00 %
01.01.2023 15:18 13,9 C 12,8 C 8,9 C 77 % 1016,1 hPa 0,0 l/m 0 min 0 min 23 W/m 12,9 km/h (3 Bft) 100,00 %
01.01.2023 15:20 13,9 C 12,8 C 8,9 C 77 % 1016,1 hPa 0,0 l/m 0 min 0 min 23 W/m 12,9 km/h (3 Bft) 100,00 %
01.01.2023 15:22 13,8 C 12,8 C 8,9 C 77 % 1016,1 hPa 0,0 l/m 0 min 0 min 21 W/m 16,1 km/h (3 Bft) 100,00 %
01.01.2023 15:24 13,8 C 12,8 C 8,9 C 77 % 1016,2 hPa 0,0 l/m 0 min 0 min 19 W/m 16,1 km/h (3 Bft) 100,00 %
01.01.2023 15:26 13,8 C 12,8 C 8,9 C 77 % 1016,1 hPa 0,0 l/m 0 min 0 min 18 W/m 12,9 km/h (3 Bft) 100,00 %
01.01.2023 15:28 13,8 C 12,8 C 8,9 C 77 % 1016,2 hPa 0,0 l/m 0 min 0 min 18 W/m 12,9 km/h (3 Bft) 100,00 %
01.01.2023 15:30 13,8 C 12,8 C 8,9 C 77 % 1016,2 hPa 0,0 l/m 0 min 0 min 18 W/m 16,1 km/h (3 Bft) 100,00 %
01.01.2023 15:32 13,8 C 12,8 C 8,9 C 77 % 1016,2 hPa 0,0 l/m 0 min 0 min 18 W/m 16,1 km/h (3 Bft) 97,96 %
01.01.2023 15:34 13,8 C 12,8 C 8,9 C 77 % 1016,2 hPa 0,0 l/m 0 min 0 min 16 W/m 16,1 km/h (3 Bft) 100,00 %
01.01.2023 15:36 13,8 C 12,8 C 8,9 C 77 % 1016,2 hPa 0,0 l/m 0 min 0 min 14 W/m 9,7 km/h (2 Bft) 100,00 %
01.01.2023 15:38 13,8 C 12,8 C 8,9 C 77 % 1016,2 hPa 0,0 l/m 0 min 0 min 14 W/m 25,7 km/h (4 Bft) 100,00 %
01.01.2023 15:40 13,7 C 12,8 C 8,9 C 77 % 1016,2 hPa 0,0 l/m 0 min 0 min 14 W/m 9,7 km/h (2 Bft) 97,83 %
01.01.2023 15:42 13,7 C 12,8 C 8,9 C 77 % 1016,2 hPa 0,0 l/m 0 min 0 min 12 W/m 9,7 km/h (2 Bft) 95,74 %
01.01.2023 15:44 13,7 C 12,8 C 8,9 C 77 % 1016,3 hPa 0,0 l/m 0 min 0 min 12 W/m 16,1 km/h (3 Bft) 97,87 %
01.01.2023 15:46 13,7 C 12,8 C 8,9 C 77 % 1016,3 hPa 0,0 l/m 0 min 0 min 11 W/m 6,4 km/h (2 Bft) 97,87 %
01.01.2023 15:48 13,7 C 12,8 C 8,9 C 78 % 1016,4 hPa 0,0 l/m 0 min 0 min 11 W/m 9,7 km/h (2 Bft) 93,62 %
01.01.2023 15:50 13,7 C 12,8 C 8,9 C 78 % 1016,4 hPa 0,0 l/m 0 min 0 min 11 W/m 6,4 km/h (2 Bft) 97,87 %
01.01.2023 15:52 13,7 C 12,8 C 8,9 C 78 % 1016,4 hPa 0,0 l/m 0 min 0 min 11 W/m 9,7 km/h (2 Bft) 97,87 %
01.01.2023 15:54 13,7 C 12,8 C 8,9 C 78 % 1016,4 hPa 0,0 l/m 0 min 0 min 11 W/m 12,9 km/h (3 Bft) 97,83 %
01.01.2023 15:56 13,6 C 12,8 C 8,9 C 78 % 1016,4 hPa 0,0 l/m 0 min 0 min 10 W/m 9,7 km/h (2 Bft) 97,87 %
01.01.2023 15:58 13,6 C 12,8 C 8,9 C 78 % 1016,4 hPa 0,0 l/m 0 min 0 min 9 W/m 16,1 km/h (3 Bft) 97,87 %
01.01.2023 16:00 13,6 C 12,8 C 8,9 C 78 % 1016,4 hPa 0,0 l/m 0 min 0 min 9 W/m 6,4 km/h (2 Bft) 93,62 %
01.01.2023 16:02 13,6 C 12,8 C 8,9 C 78 % 1016,4 hPa 0,0 l/m 0 min 0 min 9 W/m 12,9 km/h (3 Bft) 97,87 %
01.01.2023 16:04 13,6 C 12,8 C 8,9 C 78 % 1016,5 hPa 0,0 l/m 0 min 0 min 8 W/m 12,9 km/h (3 Bft) 97,87 %
01.01.2023 16:06 13,6 C 12,8 C 8,9 C 78 % 1016,4 hPa 0,0 l/m 0 min 0 min 7 W/m 6,4 km/h (2 Bft) 95,74 %
01.01.2023 16:08 13,6 C 12,8 C 8,9 C 78 % 1016,4 hPa 0,0 l/m 0 min 0 min 7 W/m 9,7 km/h (2 Bft) 95,65 %
01.01.2023 16:10 13,6 C 12,8 C 8,9 C 78 % 1016,4 hPa 0,0 l/m 0 min 0 min 7 W/m 6,4 km/h (2 Bft) 93,62 %
01.01.2023 16:12 13,6 C 12,8 C 8,9 C 79 % 1016,3 hPa 0,0 l/m 0 min 0 min 5 W/m 9,7 km/h (2 Bft) 95,74 %
01.01.2023 16:14 13,5 C 12,8 C 8,9 C 79 % 1016,3 hPa 0,0 l/m 0 min 0 min 5 W/m 12,9 km/h (3 Bft) 95,74 %
01.01.2023 16:16 13,5 C 12,8 C 8,9 C 79 % 1016,3 hPa 0,0 l/m 0 min 0 min 3 W/m 9,7 km/h (2 Bft) 95,74 %
01.01.2023 16:18 13,5 C 12,8 C 8,9 C 79 % 1016,2 hPa 0,0 l/m 0 min 0 min 0 W/m 16,1 km/h (3 Bft) 95,74 %
01.01.2023 16:20 13,5 C 12,8 C 8,3 C 79 % 1016,2 hPa 0,0 l/m 0 min 0 min 0 W/m 12,9 km/h (3 Bft) 93,62 %
01.01.2023 16:22 13,4 C 12,2 C 8,3 C 79 % 1016,1 hPa 0,0 l/m 0 min 0 min 0 W/m 9,7 km/h (2 Bft) 95,65 %
01.01.2023 16:24 13,4 C 12,2 C 8,3 C 79 % 1016,1 hPa 0,0 l/m 0 min 0 min 0 W/m 12,9 km/h (3 Bft) 97,22 %
01.01.2023 16:26 13,4 C 12,2 C 8,3 C 80 % 1016,0 hPa 0,0 l/m 0 min 2 min 0 W/m 6,4 km/h (2 Bft) 89,47 %
01.01.2023 16:28 13,4 C 12,2 C 8,3 C 80 % 1016,0 hPa 0,0 l/m 0 min 0 min 0 W/m 12,9 km/h (3 Bft) 97,92 %
01.01.2023 16:30 13,4 C 12,2 C 8,3 C 80 % 1016,1 hPa 0,0 l/m 0 min 0 min 0 W/m 9,7 km/h (2 Bft) 97,14 %
01.01.2023 16:32 13,4 C 12,2 C 7,8 C 80 % 1016,2 hPa 0,0 l/m 0 min 0 min 0 W/m 12,9 km/h (3 Bft) 97,87 %
01.01.2023 16:34 13,3 C 12,2 C 8,3 C 80 % 1016,2 hPa 0,0 l/m 0 min 0 min 0 W/m 16,1 km/h (3 Bft) 94,74 %
01.01.2023 16:36 13,3 C 12,2 C 8,3 C 80 % 1016,2 hPa 0,0 l/m 0 min 0 min 0 W/m 16,1 km/h (3 Bft) 97,83 %
01.01.2023 16:38 13,3 C 12,2 C 8,3 C 80 % 1016,3 hPa 0,0 l/m 0 min 0 min 0 W/m 12,9 km/h (3 Bft) 97,96 %
01.01.2023 16:40 13,2 C 12,2 C 8,3 C 81 % 1016,3 hPa 0,0 l/m 0 min 0 min 0 W/m 6,4 km/h (2 Bft) 95,74 %
01.01.2023 16:42 13,2 C 12,2 C 8,3 C 81 % 1016,3 hPa 0,0 l/m 0 min 0 min 0 W/m 16,1 km/h (3 Bft) 95,74 %
01.01.2023 16:44 13,2 C 12,2 C 8,3 C 81 % 1016,4 hPa 0,0 l/m 0 min 0 min 0 W/m 12,9 km/h (3 Bft) 97,87 %
01.01.2023 16:46 13,2 C 12,2 C 8,3 C 81 % 1016,4 hPa 0,0 l/m 0 min 0 min 0 W/m 16,1 km/h (3 Bft) 97,87 %
01.01.2023 16:48 13,1 C 12,2 C 7,8 C 81 % 1016,3 hPa 0,0 l/m 0 min 2 min 0 W/m 6,4 km/h (2 Bft) 95,65 %
01.01.2023 16:50 13,1 C 12,2 C 7,8 C 82 % 1016,4 hPa 0,0 l/m 0 min 0 min 0 W/m 16,1 km/h (3 Bft) 97,87 %
01.01.2023 16:52 13,1 C 12,2 C 7,8 C 82 % 1016,4 hPa 0,0 l/m 0 min 0 min 0 W/m 19,3 km/h (3 Bft) 97,87 %
01.01.2023 16:54 13,1 C 12,2 C 7,8 C 82 % 1016,3 hPa 0,0 l/m 0 min 2 min 0 W/m 38,6 km/h (5 Bft) 97,87 %
01.01.2023 16:56 13,1 C 11,7 C 7,8 C 82 % 1016,4 hPa 0,0 l/m 0 min 2 min 0 W/m 22,5 km/h (4 Bft) 97,87 %
01.01.2023 16:58 13,1 C 11,7 C 7,8 C 82 % 1016,3 hPa 0,0 l/m 0 min 2 min 0 W/m 16,1 km/h (3 Bft) 97,87 %
01.01.2023 17:00 13,0 C 11,7 C 7,2 C 82 % 1016,4 hPa 0,0 l/m 0 min 2 min 0 W/m 12,9 km/h (3 Bft) 97,87 %
01.01.2023 17:02 13,0 C 11,7 C 7,2 C 82 % 1016,4 hPa 0,0 l/m 0 min 2 min 0 W/m 6,4 km/h (2 Bft) 95,65 %
01.01.2023 17:04 13,0 C 11,7 C 7,2 C 82 % 1016,4 hPa 0,0 l/m 0 min 0 min 0 W/m 6,4 km/h (2 Bft) 97,87 %
01.01.2023 17:06 12,9 C 11,7 C 7,2 C 83 % 1016,4 hPa 0,0 l/m 0 min 0 min 0 W/m 3,2 km/h (1 Bft) 97,87 %
01.01.2023 17:08 12,9 C 11,7 C 7,2 C 83 % 1016,3 hPa 0,0 l/m 0 min 0 min 0 W/m 3,2 km/h (1 Bft) 95,74 %
01.01.2023 17:10 12,9 C 11,7 C 7,2 C 83 % 1016,3 hPa 0,0 l/m 0 min 0 min 0 W/m 6,4 km/h (2 Bft) 97,87 %
01.01.2023 17:12 12,9 C 11,7 C 7,2 C 83 % 1016,3 hPa 0,0 l/m 0 min 0 min 0 W/m 9,7 km/h (2 Bft) 97,87 %
01.01.2023 17:14 12,8 C 11,7 C 7,2 C 83 % 1016,3 hPa 0,0 l/m 0 min 2 min 0 W/m 16,1 km/h (3 Bft) 97,87 %
01.01.2023 17:16 12,8 C 11,7 C 7,2 C 84 % 1016,3 hPa 0,0 l/m 0 min 2 min 0 W/m 9,7 km/h (2 Bft) 93,62 %
01.01.2023 17:18 12,7 C 11,7 C 7,2 C 84 % 1016,4 hPa 0,0 l/m 0 min 2 min 0 W/m 12,9 km/h (3 Bft) 97,83 %
01.01.2023 17:20 12,7 C 11,7 C 7,2 C 84 % 1016,4 hPa 0,0 l/m 0 min 2 min 0 W/m 12,9 km/h (3 Bft) 95,74 %
01.01.2023 17:22 12,7 C 11,7 C 7,2 C 84 % 1016,4 hPa 0,2 l/m 0 min 2 min 0 W/m 12,9 km/h (3 Bft) 97,87 %
01.01.2023 17:24 12,6 C 11,7 C 6,7 C 84 % 1016,4 hPa 0,0 l/m 0 min 2 min 0 W/m 6,4 km/h (2 Bft) 100,00 %
01.01.2023 17:26 12,6 C 11,1 C 6,7 C 85 % 1016,4 hPa 0,0 l/m 0 min 2 min 0 W/m 6,4 km/h (2 Bft) 97,87 %
01.01.2023 17:28 12,6 C 11,1 C 6,7 C 85 % 1016,4 hPa 0,0 l/m 0 min 2 min 0 W/m 6,4 km/h (2 Bft) 97,87 %
01.01.2023 17:30 12,6 C 11,1 C 6,7 C 85 % 1016,5 hPa 0,0 l/m 0 min 2 min 0 W/m 16,1 km/h (3 Bft) 100,00 %
01.01.2023 17:32 12,5 C 11,1 C 6,7 C 86 % 1016,5 hPa 0,0 l/m 0 min 2 min 0 W/m 22,5 km/h (4 Bft) 97,87 %
01.01.2023 17:34 12,4 C 11,1 C 6,7 C 86 % 1016,4 hPa 0,0 l/m 0 min 2 min 0 W/m 19,3 km/h (3 Bft) 97,87 %
01.01.2023 17:36 12,4 C 11,1 C 6,7 C 86 % 1016,5 hPa 0,0 l/m 0 min 2 min 0 W/m 16,1 km/h (3 Bft) 100,00 %
01.01.2023 17:38 12,4 C 11,1 C 6,7 C 86 % 1016,5 hPa 0,0 l/m 0 min 2 min 0 W/m 16,1 km/h (3 Bft) 100,00 %
01.01.2023 17:40 12,3 C 11,1 C 6,7 C 86 % 1016,4 hPa 0,0 l/m 0 min 2 min 0 W/m 16,1 km/h (3 Bft) 97,87 %
01.01.2023 17:42 12,3 C 11,1 C 6,7 C 87 % 1016,4 hPa 0,0 l/m 0 min 2 min 0 W/m 12,9 km/h (3 Bft) 100,00 %
01.01.2023 17:44 12,3 C 11,1 C 6,7 C 87 % 1016,5 hPa 0,0 l/m 0 min 2 min 0 W/m 12,9 km/h (3 Bft) 100,00 %
01.01.2023 17:46 12,2 C 11,1 C 6,7 C 87 % 1016,4 hPa 0,2 l/m 0 min 2 min 0 W/m 9,7 km/h (2 Bft) 100,00 %
01.01.2023 17:48 12,2 C 11,1 C 6,7 C 87 % 1016,4 hPa 0,0 l/m 0 min 2 min 0 W/m 6,4 km/h (2 Bft) 100,00 %
01.01.2023 17:50 12,2 C 11,1 C 6,7 C 88 % 1016,4 hPa 0,0 l/m 0 min 2 min 0 W/m 9,7 km/h (2 Bft) 100,00 %
01.01.2023 17:52 12,2 C 10,6 C 6,7 C 88 % 1016,4 hPa 0,0 l/m 0 min 2 min 0 W/m 6,4 km/h (2 Bft) 97,87 %
01.01.2023 17:54 12,1 C 10,6 C 6,7 C 88 % 1016,4 hPa 0,0 l/m 0 min 2 min 0 W/m 12,9 km/h (3 Bft) 100,00 %
01.01.2023 17:56 12,1 C 10,6 C 6,7 C 88 % 1016,3 hPa 0,0 l/m 0 min 2 min 0 W/m 6,4 km/h (2 Bft) 100,00 %
01.01.2023 17:58 12,1 C 10,6 C 6,7 C 88 % 1016,3 hPa 0,0 l/m 0 min 2 min 0 W/m 9,7 km/h (2 Bft) 100,00 %
01.01.2023 18:00 12,0 C 10,6 C 6,7 C 89 % 1016,2 hPa 0,0 l/m 0 min 2 min 0 W/m 9,7 km/h (2 Bft) 97,87 %
01.01.2023 18:02 12,0 C 10,6 C 6,7 C 89 % 1016,2 hPa 0,2 l/m 0 min 2 min 0 W/m 12,9 km/h (3 Bft) 95,74 %
01.01.2023 18:04 11,9 C 10,6 C 6,7 C 89 % 1016,1 hPa 0,0 l/m 0 min 2 min 0 W/m 9,7 km/h (2 Bft) 97,96 %
01.01.2023 18:07 11,9 C 10,6 C 6,1 C 89 % 1016,1 hPa 0,0 l/m 0 min 3 min 0 W/m 6,4 km/h (2 Bft) 98,46 %
01.01.2023 18:08 11,9 C 10,6 C 6,1 C 89 % 1016,1 hPa 0,0 l/m 0 min 1 min 0 W/m 6,4 km/h (2 Bft) 95,83 %
01.01.2023 18:12 11,8 C 10,6 C 6,1 C 90 % 1016,0 hPa 0,0 l/m 0 min 4 min 0 W/m 6,4 km/h (2 Bft) 98,25 %
01.01.2023 18:16 11,8 C 10,6 C 6,1 C 90 % 1015,9 hPa 0,0 l/m 0 min 0 min 0 W/m 6,4 km/h (2 Bft) 97,87 %
01.01.2023 18:18 11,8 C 10,6 C 6,1 C 90 % 1015,9 hPa 0,0 l/m 0 min 0 min 0 W/m 12,9 km/h (3 Bft) 100,00 %
01.01.2023 18:20 11,8 C 10,6 C 6,1 C 90 % 1015,9 hPa 0,0 l/m 0 min 0 min 0 W/m 6,4 km/h (2 Bft) 97,87 %
01.01.2023 18:22 11,7 C 10,6 C 6,1 C 90 % 1015,8 hPa 0,0 l/m 0 min 0 min 0 W/m 12,9 km/h (3 Bft) 97,87 %
01.01.2023 18:24 11,7 C 10,6 C 6,1 C 90 % 1015,9 hPa 0,0 l/m 0 min 2 min 0 W/m 12,9 km/h (3 Bft) 97,87 %
01.01.2023 18:26 11,7 C 10,6 C 6,1 C 91 % 1015,8 hPa 0,2 l/m 0 min 2 min 0 W/m 6,4 km/h (2 Bft) 97,87 %
01.01.2023 18:28 11,6 C 10,6 C 6,1 C 91 % 1015,8 hPa 0,0 l/m 0 min 2 min 0 W/m 9,7 km/h (2 Bft) 97,83 %
01.01.2023 18:30 11,6 C 10,6 C 6,1 C 91 % 1015,8 hPa 0,0 l/m 0 min 2 min 0 W/m 6,4 km/h (2 Bft) 95,74 %
01.01.2023 18:32 11,6 C 10,6 C 6,1 C 91 % 1015,8 hPa 0,0 l/m 0 min 2 min 0 W/m 9,7 km/h (2 Bft) 100,00 %
01.01.2023 18:34 11,6 C 10,6 C 6,1 C 91 % 1015,8 hPa 0,0 l/m 0 min 2 min 0 W/m 6,4 km/h (2 Bft) 100,00 %
01.01.2023 18:36 11,6 C 10,6 C 6,1 C 91 % 1015,8 hPa 0,0 l/m 0 min 2 min 0 W/m 9,7 km/h (2 Bft) 100,00 %
01.01.2023 18:38 11,5 C 10,0 C 6,1 C 91 % 1015,7 hPa 0,0 l/m 0 min 2 min 0 W/m 19,3 km/h (3 Bft) 100,00 %
01.01.2023 18:40 11,5 C 10,0 C 6,1 C 91 % 1015,8 hPa 0,2 l/m 0 min 2 min 0 W/m 6,4 km/h (2 Bft) 100,00 %
01.01.2023 18:42 11,5 C 10,0 C 6,1 C 92 % 1015,6 hPa 0,0 l/m 0 min 2 min 0 W/m 12,9 km/h (3 Bft) 93,62 %
01.01.2023 18:44 11,4 C 10,0 C 6,1 C 92 % 1015,6 hPa 0,0 l/m 0 min 2 min 0 W/m 12,9 km/h (3 Bft) 100,00 %
01.01.2023 18:46 11,4 C 10,0 C 6,1 C 92 % 1015,5 hPa 0,0 l/m 0 min 2 min 0 W/m 12,9 km/h (3 Bft) 97,87 %
01.01.2023 18:48 11,4 C 10,0 C 6,1 C 92 % 1015,5 hPa 0,2 l/m 0 min 2 min 0 W/m 6,4 km/h (2 Bft) 95,74 %
01.01.2023 18:50 11,4 C 10,0 C 6,1 C 92 % 1015,5 hPa 0,0 l/m 0 min 0 min 0 W/m 9,7 km/h (2 Bft) 95,74 %
01.01.2023 18:52 11,4 C 10,0 C 6,1 C 92 % 1015,5 hPa 0,0 l/m 0 min 0 min 0 W/m 12,9 km/h (3 Bft) 95,74 %
01.01.2023 18:54 11,3 C 10,0 C 6,1 C 92 % 1015,5 hPa 0,0 l/m 0 min 2 min 0 W/m 12,9 km/h (3 Bft) 95,65 %
01.01.2023 18:56 11,3 C 10,0 C 6,1 C 92 % 1015,5 hPa 0,0 l/m 0 min 2 min 0 W/m 12,9 km/h (3 Bft) 97,87 %
01.01.2023 18:58 11,3 C 10,0 C 6,1 C 93 % 1015,5 hPa 0,0 l/m 0 min 2 min 0 W/m 12,9 km/h (3 Bft) 97,87 %
01.01.2023 19:00 11,3 C 10,0 C 6,1 C 93 % 1015,5 hPa 0,0 l/m 0 min 2 min 0 W/m 12,9 km/h (3 Bft) 93,62 %
01.01.2023 19:02 11,3 C 10,0 C 6,1 C 93 % 1015,5 hPa 0,0 l/m 0 min 2 min 0 W/m 6,4 km/h (2 Bft) 95,92 %
01.01.2023 19:04 11,3 C 10,0 C 6,1 C 93 % 1015,5 hPa 0,0 l/m 0 min 2 min 0 W/m 6,4 km/h (2 Bft) 95,65 %
01.01.2023 19:06 11,3 C 10,0 C 6,1 C 93 % 1015,5 hPa 0,0 l/m 0 min 2 min 0 W/m 12,9 km/h (3 Bft) 93,75 %
01.01.2023 19:08 11,3 C 10,0 C 6,1 C 93 % 1015,5 hPa 0,2 l/m 0 min 0 min 0 W/m 12,9 km/h (3 Bft) 95,74 %
01.01.2023 19:10 11,3 C 10,0 C 6,1 C 93 % 1015,5 hPa 0,0 l/m 0 min 2 min 0 W/m 9,7 km/h (2 Bft) 95,74 %
01.01.2023 19:12 11,2 C 10,0 C 6,1 C 93 % 1015,6 hPa 0,0 l/m 0 min 2 min 0 W/m 6,4 km/h (2 Bft) 95,74 %
01.01.2023 19:14 11,2 C 10,0 C 6,1 C 93 % 1015,6 hPa 0,0 l/m 0 min 2 min 0 W/m 6,4 km/h (2 Bft) 95,74 %
01.01.2023 19:16 11,2 C 10,0 C 6,1 C 94 % 1015,6 hPa 0,2 l/m 0 min 2 min 0 W/m 6,4 km/h (2 Bft) 91,30 %
01.01.2023 19:18 11,2 C 10,0 C 6,1 C 94 % 1015,5 hPa 0,0 l/m 0 min 2 min 0 W/m 3,2 km/h (1 Bft) 93,62 %
01.01.2023 19:20 11,2 C 10,0 C 6,1 C 94 % 1015,5 hPa 0,0 l/m 0 min 2 min 0 W/m 12,9 km/h (3 Bft) 95,74 %
01.01.2023 19:22 11,2 C 10,0 C 6,1 C 94 % 1015,5 hPa 0,0 l/m 0 min 2 min 0 W/m 6,4 km/h (2 Bft) 95,74 %
01.01.2023 19:24 11,2 C 10,0 C 6,1 C 94 % 1015,5 hPa 0,0 l/m 0 min 2 min 0 W/m 9,7 km/h (2 Bft) 95,74 %
01.01.2023 19:26 11,2 C 10,0 C 6,1 C 94 % 1015,4 hPa 0,0 l/m 0 min 2 min 0 W/m 12,9 km/h (3 Bft) 95,74 %
01.01.2023 19:28 11,1 C 10,0 C 6,7 C 94 % 1015,4 hPa 0,2 l/m 0 min 2 min 0 W/m 9,7 km/h (2 Bft) 94,74 %
01.01.2023 19:30 11,1 C 10,0 C 6,7 C 94 % 1015,4 hPa 0,0 l/m 0 min 2 min 0 W/m 12,9 km/h (3 Bft) 95,74 %
01.01.2023 19:32 11,1 C 10,0 C 6,1 C 94 % 1015,3 hPa 0,2 l/m 0 min 2 min 0 W/m 6,4 km/h (2 Bft) 95,74 %
01.01.2023 19:34 11,1 C 10,0 C 6,7 C 94 % 1015,5 hPa 0,0 l/m 0 min 2 min 0 W/m 6,4 km/h (2 Bft) 95,74 %
01.01.2023 19:36 11,1 C 10,0 C 6,7 C 94 % 1015,4 hPa 0,0 l/m 0 min 2 min 0 W/m 3,2 km/h (1 Bft) 97,83 %
01.01.2023 19:38 11,1 C 10,0 C 6,7 C 94 % 1015,3 hPa 0,0 l/m 0 min 2 min 0 W/m 6,4 km/h (2 Bft) 93,62 %
01.01.2023 19:40 11,1 C 10,0 C 6,7 C 94 % 1015,2 hPa 0,0 l/m 0 min 2 min 0 W/m 12,9 km/h (3 Bft) 100,00 %
01.01.2023 19:42 11,1 C 10,0 C 6,7 C 94 % 1015,2 hPa 0,0 l/m 0 min 2 min 0 W/m 12,9 km/h (3 Bft) 100,00 %
01.01.2023 19:44 11,1 C 10,0 C 6,1 C 95 % 1015,2 hPa 0,0 l/m 0 min 0 min 0 W/m 12,9 km/h (3 Bft) 100,00 %
01.01.2023 19:46 11,1 C 10,0 C 6,1 C 95 % 1015,2 hPa 0,0 l/m 0 min 0 min 0 W/m 12,9 km/h (3 Bft) 95,74 %
01.01.2023 19:48 11,1 C 10,0 C 6,1 C 95 % 1015,2 hPa 0,0 l/m 0 min 0 min 0 W/m 16,1 km/h (3 Bft) 97,83 %
01.01.2023 19:50 11,1 C 10,0 C 6,1 C 95 % 1015,2 hPa 0,0 l/m 0 min 2 min 0 W/m 9,7 km/h (2 Bft) 100,00 %
01.01.2023 19:52 11,0 C 10,0 C 6,1 C 95 % 1015,1 hPa 0,0 l/m 0 min 0 min 0 W/m 12,9 km/h (3 Bft) 97,87 %
01.01.2023 19:54 11,0 C 10,0 C 6,1 C 95 % 1015,1 hPa 0,0 l/m 0 min 0 min 0 W/m 12,9 km/h (3 Bft) 97,87 %
01.01.2023 19:56 11,0 C 10,0 C 6,1 C 95 % 1015,1 hPa 0,0 l/m 0 min 2 min 0 W/m 9,7 km/h (2 Bft) 96,23 %
01.01.2023 19:58 11,0 C 10,0 C 6,1 C 95 % 1015,1 hPa 0,0 l/m 0 min 0 min 0 W/m 16,1 km/h (3 Bft) 97,87 %
01.01.2023 20:00 11,0 C 10,0 C 6,1 C 95 % 1015,1 hPa 0,0 l/m 0 min 0 min 0 W/m 6,4 km/h (2 Bft) 97,87 %
01.01.2023 20:02 11,0 C 10,0 C 6,1 C 95 % 1015,1 hPa 0,0 l/m 0 min 2 min 0 W/m 12,9 km/h (3 Bft) 95,74 %
01.01.2023 20:04 10,9 C 10,0 C 6,1 C 95 % 1015,1 hPa 0,0 l/m 0 min 0 min 0 W/m 19,3 km/h (3 Bft) 97,83 %
01.01.2023 20:06 10,9 C 10,0 C 6,7 C 95 % 1015,1 hPa 0,0 l/m 0 min 2 min 0 W/m 9,7 km/h (2 Bft) 97,87 %
01.01.2023 20:08 10,9 C 10,0 C 6,1 C 95 % 1015,1 hPa 0,0 l/m 0 min 0 min 0 W/m 12,9 km/h (3 Bft) 97,87 %
01.01.2023 20:10 10,9 C 10,0 C 6,7 C 95 % 1015,1 hPa 0,0 l/m 0 min 0 min 0 W/m 12,9 km/h (3 Bft) 97,87 %
01.01.2023 20:12 10,9 C 10,0 C 6,7 C 96 % 1015,0 hPa 0,2 l/m 0 min 2 min 0 W/m 12,9 km/h (3 Bft) 97,87 %
01.01.2023 20:14 10,9 C 10,0 C 6,7 C 96 % 1015,1 hPa 0,0 l/m 0 min 2 min 0 W/m 12,9 km/h (3 Bft) 97,87 %
01.01.2023 20:16 10,9 C 10,0 C 6,1 C 95 % 1015,0 hPa 0,0 l/m 0 min 2 min 0 W/m 16,1 km/h (3 Bft) 95,65 %
01.01.2023 20:18 10,9 C 10,0 C 6,1 C 95 % 1014,9 hPa 0,0 l/m 0 min 2 min 0 W/m 16,1 km/h (3 Bft) 95,74 %
01.01.2023 20:20 10,9 C 10,0 C 6,1 C 96 % 1014,9 hPa 0,0 l/m 0 min 2 min 0 W/m 16,1 km/h (3 Bft) 97,87 %
01.01.2023 20:22 10,9 C 10,0 C 6,1 C 96 % 1014,8 hPa 0,0 l/m 0 min 2 min 0 W/m 16,1 km/h (3 Bft) 100,00 %
01.01.2023 20:24 10,9 C 10,0 C 6,7 C 96 % 1014,8 hPa 0,0 l/m 0 min 2 min 0 W/m 16,1 km/h (3 Bft) 100,00 %
01.01.2023 20:26 10,9 C 10,0 C 6,7 C 96 % 1014,8 hPa 0,0 l/m 0 min 2 min 0 W/m 19,3 km/h (3 Bft) 100,00 %
01.01.2023 20:28 10,9 C 10,0 C 6,7 C 96 % 1014,7 hPa 0,0 l/m 0 min 2 min 0 W/m 12,9 km/h (3 Bft) 100,00 %
01.01.2023 20:30 10,9 C 10,0 C 6,7 C 96 % 1014,7 hPa 0,0 l/m 0 min 0 min 0 W/m 12,9 km/h (3 Bft) 100,00 %
01.01.2023 20:32 10,9 C 10,0 C 6,7 C 96 % 1014,6 hPa 0,0 l/m 0 min 2 min 0 W/m 9,7 km/h (2 Bft) 97,87 %
01.01.2023 20:34 10,9 C 10,0 C 6,7 C 96 % 1014,5 hPa 0,0 l/m 0 min 0 min 0 W/m 12,9 km/h (3 Bft) 100,00 %
01.01.2023 20:36 10,9 C 10,0 C 6,7 C 96 % 1014,5 hPa 0,0 l/m 0 min 0 min 0 W/m 16,1 km/h (3 Bft) 100,00 %
01.01.2023 20:38 10,9 C 10,0 C 6,7 C 96 % 1014,4 hPa 0,0 l/m 0 min 0 min 0 W/m 12,9 km/h (3 Bft) 95,74 %
01.01.2023 20:40 10,9 C 10,0 C 6,7 C 96 % 1014,4 hPa 0,0 l/m 0 min 0 min 0 W/m 19,3 km/h (3 Bft) 100,00 %
01.01.2023 20:42 10,9 C 10,0 C 6,1 C 96 % 1014,3 hPa 0,0 l/m 0 min 0 min 0 W/m 16,1 km/h (3 Bft) 100,00 %
01.01.2023 20:44 10,9 C 10,0 C 6,7 C 96 % 1014,3 hPa 0,0 l/m 0 min 0 min 0 W/m 12,9 km/h (3 Bft) 100,00 %
01.01.2023 20:46 10,9 C 10,0 C 6,7 C 96 % 1014,1 hPa 0,0 l/m 0 min 0 min 0 W/m 16,1 km/h (3 Bft) 100,00 %
01.01.2023 20:48 10,9 C 10,0 C 6,1 C 96 % 1014,1 hPa 0,0 l/m 0 min 0 min 0 W/m 19,3 km/h (3 Bft) 100,00 %
01.01.2023 20:50 10,9 C 10,0 C 6,1 C 96 % 1014,1 hPa 0,0 l/m 0 min 0 min 0 W/m 22,5 km/h (4 Bft) 100,00 %
01.01.2023 20:52 10,9 C 10,0 C 6,7 C 96 % 1014,0 hPa 0,0 l/m 0 min 0 min 0 W/m 16,1 km/h (3 Bft) 100,00 %
01.01.2023 20:54 10,9 C 10,0 C 6,7 C 96 % 1014,0 hPa 0,0 l/m 0 min 0 min 0 W/m 12,9 km/h (3 Bft) 100,00 %
01.01.2023 20:56 10,9 C 10,0 C 6,7 C 96 % 1013,9 hPa 0,0 l/m 0 min 0 min 0 W/m 19,3 km/h (3 Bft) 100,00 %
01.01.2023 20:58 10,9 C 10,0 C 6,7 C 96 % 1013,9 hPa 0,0 l/m 0 min 0 min 0 W/m 16,1 km/h (3 Bft) 95,74 %
01.01.2023 21:00 10,9 C 10,6 C 6,7 C 96 % 1013,8 hPa 0,0 l/m 0 min 0 min 0 W/m 16,1 km/h (3 Bft) 97,87 %
01.01.2023 21:02 10,9 C 10,6 C 6,7 C 96 % 1013,9 hPa 0,0 l/m 0 min 0 min 0 W/m 16,1 km/h (3 Bft) 100,00 %
01.01.2023 21:04 10,9 C 10,6 C 6,7 C 96 % 1013,8 hPa 0,0 l/m 0 min 2 min 0 W/m 16,1 km/h (3 Bft) 100,00 %
01.01.2023 21:06 10,9 C 10,6 C 6,7 C 96 % 1013,8 hPa 0,0 l/m 0 min 2 min 0 W/m 16,1 km/h (3 Bft) 100,00 %
01.01.2023 21:08 10,9 C 10,6 C 6,7 C 96 % 1013,9 hPa 0,0 l/m 0 min 0 min 0 W/m 16,1 km/h (3 Bft) 100,00 %
01.01.2023 21:10 10,9 C 10,6 C 6,7 C 96 % 1013,7 hPa 0,0 l/m 0 min 2 min 0 W/m 12,9 km/h (3 Bft) 95,74 %
01.01.2023 21:12 10,9 C 10,0 C 6,7 C 96 % 1013,6 hPa 0,2 l/m 0 min 2 min 0 W/m 9,7 km/h (2 Bft) 100,00 %
01.01.2023 21:14 10,9 C 10,0 C 6,7 C 96 % 1013,5 hPa 0,0 l/m 0 min 0 min 0 W/m 12,9 km/h (3 Bft) 100,00 %
01.01.2023 21:16 10,9 C 10,0 C 6,7 C 96 % 1013,5 hPa 0,0 l/m 0 min 0 min 0 W/m 12,9 km/h (3 Bft) 100,00 %
01.01.2023 21:18 10,9 C 10,0 C 6,7 C 96 % 1013,4 hPa 0,0 l/m 0 min 0 min 0 W/m 12,9 km/h (3 Bft) 100,00 %
01.01.2023 21:20 10,9 C 10,0 C 6,7 C 96 % 1013,4 hPa 0,0 l/m 0 min 0 min 0 W/m 12,9 km/h (3 Bft) 95,74 %
01.01.2023 21:22 10,9 C 10,0 C 6,7 C 96 % 1013,3 hPa 0,0 l/m 0 min 0 min 0 W/m 12,9 km/h (3 Bft) 97,87 %
01.01.2023 21:24 10,9 C 10,6 C 6,7 C 96 % 1013,3 hPa 0,0 l/m 0 min 0 min 0 W/m 12,9 km/h (3 Bft) 95,65 %
01.01.2023 21:26 10,9 C 10,6 C 6,7 C 96 % 1013,3 hPa 0,0 l/m 0 min 0 min 0 W/m 16,1 km/h (3 Bft) 97,87 %
01.01.2023 21:28 10,9 C 10,6 C 6,7 C 96 % 1013,4 hPa 0,0 l/m 0 min 0 min 0 W/m 6,4 km/h (2 Bft) 97,87 %
01.01.2023 21:30 10,9 C 10,6 C 6,7 C 96 % 1013,3 hPa 0,0 l/m 0 min 0 min 0 W/m 12,9 km/h (3 Bft) 97,87 %
01.01.2023 21:32 10,9 C 10,6 C 6,7 C 96 % 1013,3 hPa 0,0 l/m 0 min 0 min 0 W/m 12,9 km/h (3 Bft) 97,87 %
01.01.2023 21:34 10,9 C 10,6 C 6,7 C 96 % 1013,3 hPa 0,0 l/m 0 min 0 min 0 W/m 19,3 km/h (3 Bft) 97,83 %
01.01.2023 21:36 11,0 C 10,6 C 6,7 C 96 % 1013,2 hPa 0,0 l/m 0 min 0 min 0 W/m 12,9 km/h (3 Bft) 93,62 %
01.01.2023 21:38 11,0 C 10,6 C 6,7 C 96 % 1013,3 hPa 0,0 l/m 0 min 0 min 0 W/m 12,9 km/h (3 Bft) 100,00 %
01.01.2023 21:40 11,0 C 10,6 C 6,7 C 96 % 1013,4 hPa 0,0 l/m 0 min 0 min 0 W/m 12,9 km/h (3 Bft) 97,87 %
01.01.2023 21:42 11,0 C 10,6 C 6,7 C 96 % 1013,4 hPa 0,0 l/m 0 min 0 min 0 W/m 9,7 km/h (2 Bft) 95,74 %
01.01.2023 21:44 11,0 C 10,6 C 6,7 C 96 % 1013,4 hPa 0,0 l/m 0 min 2 min 0 W/m 25,7 km/h (4 Bft) 93,62 %
01.01.2023 21:46 11,1 C 10,6 C 6,7 C 96 % 1013,3 hPa 0,0 l/m 0 min 2 min 0 W/m 19,3 km/h (3 Bft) 91,30 %
01.01.2023 21:48 11,1 C 10,6 C 6,7 C 96 % 1013,3 hPa 0,0 l/m 0 min 0 min 0 W/m 16,1 km/h (3 Bft) 93,62 %
01.01.2023 21:50 11,1 C 10,6 C 6,7 C 96 % 1013,2 hPa 0,0 l/m 0 min 0 min 0 W/m 12,9 km/h (3 Bft) 93,62 %
01.01.2023 21:52 11,1 C 10,6 C 6,7 C 96 % 1013,2 hPa 0,0 l/m 0 min 2 min 0 W/m 16,1 km/h (3 Bft) 93,62 %
01.01.2023 21:54 11,1 C 10,6 C 6,7 C 96 % 1013,2 hPa 0,0 l/m 0 min 2 min 0 W/m 16,1 km/h (3 Bft) 91,49 %
01.01.2023 21:56 11,1 C 10,6 C 6,7 C 96 % 1013,2 hPa 0,0 l/m 0 min 2 min 0 W/m 16,1 km/h (3 Bft) 93,62 %
01.01.2023 21:58 11,1 C 10,6 C 6,7 C 96 % 1013,2 hPa 0,0 l/m 0 min 2 min 0 W/m 19,3 km/h (3 Bft) 91,30 %
01.01.2023 22:00 11,1 C 10,6 C 6,7 C 96 % 1013,2 hPa 0,0 l/m 0 min 2 min 0 W/m 19,3 km/h (3 Bft) 95,74 %
01.01.2023 22:02 11,1 C 10,6 C 6,7 C 96 % 1013,1 hPa 0,0 l/m 0 min 0 min 0 W/m 16,1 km/h (3 Bft) 91,49 %
01.01.2023 22:04 11,1 C 10,6 C 6,7 C 96 % 1013,1 hPa 0,0 l/m 0 min 0 min 0 W/m 16,1 km/h (3 Bft) 95,74 %
01.01.2023 22:06 11,1 C 10,6 C 6,7 C 96 % 1013,0 hPa 0,0 l/m 0 min 0 min 0 W/m 19,3 km/h (3 Bft) 97,87 %
01.01.2023 22:08 11,1 C 10,6 C 6,7 C 96 % 1013,0 hPa 0,0 l/m 0 min 0 min 0 W/m 19,3 km/h (3 Bft) 95,74 %
01.01.2023 22:10 11,1 C 10,6 C 6,7 C 96 % 1013,0 hPa 0,0 l/m 0 min 2 min 0 W/m 12,9 km/h (3 Bft) 95,65 %
01.01.2023 22:12 11,1 C 10,6 C 6,7 C 96 % 1013,1 hPa 0,0 l/m 0 min 2 min 0 W/m 22,5 km/h (4 Bft) 93,62 %
01.01.2023 22:14 11,1 C 10,6 C 6,7 C 96 % 1013,1 hPa 0,0 l/m 0 min 0 min 0 W/m 22,5 km/h (4 Bft) 95,74 %
01.01.2023 22:16 11,1 C 10,6 C 6,7 C 96 % 1013,0 hPa 0,0 l/m 0 min 2 min 0 W/m 16,1 km/h (3 Bft) 95,74 %
01.01.2023 22:18 11,1 C 10,6 C 6,7 C 96 % 1012,9 hPa 0,0 l/m 0 min 0 min 0 W/m 19,3 km/h (3 Bft) 97,87 %
01.01.2023 22:20 11,1 C 10,6 C 6,7 C 96 % 1012,9 hPa 0,0 l/m 0 min 0 min 0 W/m 22,5 km/h (4 Bft) 97,87 %
01.01.2023 22:22 11,1 C 10,6 C 6,7 C 96 % 1012,9 hPa 0,0 l/m 0 min 2 min 0 W/m 22,5 km/h (4 Bft) 97,87 %
01.01.2023 22:24 11,1 C 10,6 C 6,7 C 96 % 1012,9 hPa 0,0 l/m 0 min 2 min 0 W/m 12,9 km/h (3 Bft) 97,83 %
01.01.2023 22:26 11,1 C 10,6 C 6,7 C 96 % 1012,9 hPa 0,0 l/m 0 min 2 min 0 W/m 12,9 km/h (3 Bft) 97,87 %
01.01.2023 22:28 11,1 C 10,6 C 6,7 C 96 % 1012,8 hPa 0,0 l/m 0 min 2 min 0 W/m 19,3 km/h (3 Bft) 97,87 %
01.01.2023 22:30 11,1 C 10,6 C 6,7 C 96 % 1012,8 hPa 0,0 l/m 0 min 2 min 0 W/m 22,5 km/h (4 Bft) 95,74 %
01.01.2023 22:32 11,1 C 10,6 C 6,7 C 96 % 1012,8 hPa 0,0 l/m 0 min 2 min 0 W/m 16,1 km/h (3 Bft) 97,87 %
01.01.2023 22:34 11,1 C 10,6 C 6,7 C 96 % 1012,7 hPa 0,0 l/m 0 min 2 min 0 W/m 16,1 km/h (3 Bft) 97,83 %
01.01.2023 22:36 11,1 C 10,6 C 6,7 C 96 % 1012,7 hPa 0,0 l/m 0 min 2 min 0 W/m 12,9 km/h (3 Bft) 100,00 %
01.01.2023 22:38 11,1 C 10,6 C 6,7 C 96 % 1012,6 hPa 0,0 l/m 0 min 0 min 0 W/m 16,1 km/h (3 Bft) 95,74 %
01.01.2023 22:40 11,1 C 10,6 C 6,7 C 96 % 1012,6 hPa 0,0 l/m 0 min 2 min 0 W/m 16,1 km/h (3 Bft) 100,00 %
01.01.2023 22:42 11,1 C 10,6 C 6,7 C 96 % 1012,7 hPa 0,0 l/m 0 min 2 min 0 W/m 19,3 km/h (3 Bft) 97,87 %
01.01.2023 22:44 11,1 C 10,6 C 6,7 C 96 % 1012,6 hPa 0,0 l/m 0 min 2 min 0 W/m 16,1 km/h (3 Bft) 100,00 %
01.01.2023 22:46 11,1 C 10,6 C 6,7 C 96 % 1012,6 hPa 0,0 l/m 0 min 0 min 0 W/m 19,3 km/h (3 Bft) 93,62 %
01.01.2023 22:48 11,1 C 10,6 C 6,7 C 96 % 1012,6 hPa 0,0 l/m 0 min 2 min 0 W/m 19,3 km/h (3 Bft) 100,00 %
01.01.2023 22:50 11,1 C 10,6 C 6,7 C 96 % 1012,5 hPa 0,0 l/m 0 min 2 min 0 W/m 22,5 km/h (4 Bft) 100,00 %
01.01.2023 22:52 11,1 C 10,6 C 6,7 C 96 % 1012,5 hPa 0,0 l/m 0 min 2 min 0 W/m 19,3 km/h (3 Bft) 97,87 %
01.01.2023 22:54 11,1 C 10,6 C 6,7 C 96 % 1012,4 hPa 0,0 l/m 0 min 0 min 0 W/m 19,3 km/h (3 Bft) 100,00 %
01.01.2023 22:56 11,1 C 10,6 C 6,7 C 95 % 1012,5 hPa 0,0 l/m 0 min 0 min 0 W/m 22,5 km/h (4 Bft) 97,87 %
01.01.2023 22:58 11,2 C 10,6 C 6,7 C 95 % 1012,5 hPa 0,0 l/m 0 min 0 min 0 W/m 22,5 km/h (4 Bft) 95,65 %
01.01.2023 23:00 11,2 C 10,6 C 6,7 C 95 % 1012,5 hPa 0,0 l/m 0 min 0 min 0 W/m 12,9 km/h (3 Bft) 100,00 %
01.01.2023 23:02 11,2 C 10,6 C 6,7 C 95 % 1012,5 hPa 0,0 l/m 0 min 0 min 0 W/m 19,3 km/h (3 Bft) 97,87 %
01.01.2023 23:04 11,2 C 10,6 C 6,7 C 95 % 1012,4 hPa 0,0 l/m 0 min 0 min 0 W/m 16,1 km/h (3 Bft) 100,00 %
01.01.2023 23:06 11,2 C 10,6 C 6,7 C 95 % 1012,3 hPa 0,0 l/m 0 min 0 min 0 W/m 12,9 km/h (3 Bft) 100,00 %
01.01.2023 23:08 11,2 C 10,6 C 6,7 C 95 % 1012,4 hPa 0,0 l/m 0 min 0 min 0 W/m 19,3 km/h (3 Bft) 97,87 %
01.01.2023 23:10 11,2 C 10,6 C 6,7 C 95 % 1012,4 hPa 0,0 l/m 0 min 0 min 0 W/m 16,1 km/h (3 Bft) 100,00 %
01.01.2023 23:12 11,2 C 10,6 C 6,7 C 95 % 1012,4 hPa 0,0 l/m 0 min 0 min 0 W/m 12,9 km/h (3 Bft) 100,00 %
01.01.2023 23:14 11,2 C 10,6 C 6,7 C 95 % 1012,4 hPa 0,0 l/m 0 min 2 min 0 W/m 16,1 km/h (3 Bft) 100,00 %
01.01.2023 23:16 11,2 C 10,6 C 6,7 C 95 % 1012,4 hPa 0,0 l/m 0 min 0 min 0 W/m 12,9 km/h (3 Bft) 100,00 %
01.01.2023 23:18 11,2 C 10,6 C 6,7 C 95 % 1012,4 hPa 0,0 l/m 0 min 0 min 0 W/m 19,3 km/h (3 Bft) 100,00 %
01.01.2023 23:20 11,2 C 10,6 C 6,7 C 95 % 1012,5 hPa 0,0 l/m 0 min 0 min 0 W/m 19,3 km/h (3 Bft) 97,87 %
01.01.2023 23:22 11,2 C 10,6 C 6,7 C 95 % 1012,4 hPa 0,0 l/m 0 min 0 min 0 W/m 16,1 km/h (3 Bft) 97,83 %
01.01.2023 23:24 11,2 C 10,6 C 6,7 C 95 % 1012,4 hPa 0,0 l/m 0 min 0 min 0 W/m 16,1 km/h (3 Bft) 97,87 %
01.01.2023 23:26 11,3 C 10,6 C 6,7 C 95 % 1012,4 hPa 0,0 l/m 0 min 0 min 0 W/m 12,9 km/h (3 Bft) 100,00 %
01.01.2023 23:28 11,3 C 10,6 C 6,7 C 95 % 1012,4 hPa 0,0 l/m 0 min 0 min 0 W/m 16,1 km/h (3 Bft) 97,87 %
01.01.2023 23:30 11,3 C 10,6 C 6,7 C 95 % 1012,4 hPa 0,0 l/m 0 min 0 min 0 W/m 9,7 km/h (2 Bft) 100,00 %
01.01.2023 23:32 11,3 C 10,6 C 6,7 C 95 % 1012,4 hPa 0,0 l/m 0 min 0 min 0 W/m 16,1 km/h (3 Bft) 100,00 %
01.01.2023 23:34 11,3 C 10,6 C 6,7 C 95 % 1012,4 hPa 0,0 l/m 0 min 0 min 0 W/m 19,3 km/h (3 Bft) 100,00 %
01.01.2023 23:36 11,3 C 10,6 C 6,7 C 95 % 1012,4 hPa 0,0 l/m 0 min 0 min 0 W/m 19,3 km/h (3 Bft) 97,87 %
01.01.2023 23:38 11,3 C 10,6 C 6,7 C 95 % 1012,4 hPa 0,0 l/m 0 min 0 min 0 W/m 12,9 km/h (3 Bft) 95,74 %
01.01.2023 23:40 11,3 C 10,6 C 6,7 C 95 % 1012,4 hPa 0,0 l/m 0 min 0 min 0 W/m 12,9 km/h (3 Bft) 97,87 %
01.01.2023 23:42 11,3 C 11,1 C 6,7 C 95 % 1012,3 hPa 0,0 l/m 0 min 0 min 0 W/m 19,3 km/h (3 Bft) 95,74 %
01.01.2023 23:44 11,3 C 11,1 C 6,7 C 95 % 1012,3 hPa 0,0 l/m 0 min 0 min 0 W/m 12,9 km/h (3 Bft) 93,62 %
01.01.2023 23:46 11,3 C 11,1 C 6,7 C 95 % 1012,3 hPa 0,0 l/m 0 min 0 min 0 W/m 12,9 km/h (3 Bft) 95,65 %
01.01.2023 23:48 11,4 C 11,1 C 6,7 C 95 % 1012,2 hPa 0,0 l/m 0 min 0 min 0 W/m 19,3 km/h (3 Bft) 91,49 %
01.01.2023 23:50 11,4 C 11,1 C 6,7 C 95 % 1012,2 hPa 0,0 l/m 0 min 0 min 0 W/m 12,9 km/h (3 Bft) 48,89 %
01.01.2023 23:52 11,4 C 11,1 C 6,7 C 94 % 1012,2 hPa 0,0 l/m 0 min 0 min 0 W/m 12,9 km/h (3 Bft) 95,74 %
01.01.2023 23:54 11,4 C 11,1 C 6,7 C 94 % 1012,2 hPa 0,0 l/m 0 min 0 min 0 W/m 16,1 km/h (3 Bft) 95,74 %
01.01.2023 23:56 11,4 C 11,1 C 6,7 C 94 % 1012,2 hPa 0,0 l/m 0 min 0 min 0 W/m 12,9 km/h (3 Bft) 93,62 %
01.01.2023 23:58 11,4 C 11,1 C 6,7 C 94 % 1012,1 hPa 0,0 l/m 0 min 0 min 0 W/m 16,1 km/h (3 Bft) 93,88 %
_ Min-Zeit 20:04 18:38 18:07 02:10 00:20 - - - - 17:06 23:50
Minimum _ 10,9 C 10,0 C 6,1 C 57 % 1010,4 hPa - - - - 3,2 km/h (1 Bft) 48,89 %
_ Max-Zeit 00:26 00:24 00:10 20:12 12:38 17:22 00:00 18:12 12:14 02:04 00:56
Maximum _ 16,8 C 16,1 C 11,7 C 96 % 1016,6 hPa 0,2 l/m 0 min 4 min 110 W/m 57,9 km/h
S (7 Bft)
100,00 %
Durchschnitt _ 14,1 C 13,2 C 9,1 C 76 % 1013,8 hPa #2,4 l/m #0 min. #4:38 h 44 W/m 24,5 km/h (4 Bft) 97,36 %
© 2023 W. Hausmann